Wetterdaten: Samstag, 12.10.2013
Datum Zeit Temp. Aussen +5cm Feuchte Auss Luftdruck Regen Sonnenschein Regendauer UV Solar Windben
12.10.2013 00:00 6,7 C 5,6 C 98 % 1016,8 hPa 0,0 l/m 0 min 0 min 0,0 UV-I 0 W/m 0,0 km/h (0 Bft)
12.10.2013 00:02 6,7 C 6,1 C 98 % 1016,8 hPa 0,0 l/m 0 min 0 min 0,0 UV-I 0 W/m 0,0 km/h (0 Bft)
12.10.2013 00:06 6,7 C 5,6 C 98 % 1017,0 hPa 0,0 l/m 0 min 0 min 0,0 UV-I 0 W/m 0,0 km/h (0 Bft)
12.10.2013 00:08 6,7 C 5,6 C 98 % 1017,0 hPa 0,0 l/m 0 min 0 min 0,0 UV-I 0 W/m 0,0 km/h (0 Bft)
12.10.2013 00:10 6,7 C 6,1 C 98 % 1017,0 hPa 0,0 l/m 0 min 0 min 0,0 UV-I 0 W/m 2,6 km/h (1 Bft)
12.10.2013 00:12 6,7 C 6,1 C 98 % 1017,1 hPa 0,0 l/m 0 min 0 min 0,0 UV-I 0 W/m 2,6 km/h (1 Bft)
12.10.2013 00:14 6,7 C 6,1 C 98 % 1017,0 hPa 0,0 l/m 0 min 0 min 0,0 UV-I 0 W/m 0,0 km/h (0 Bft)
12.10.2013 00:16 6,7 C 5,6 C 98 % 1017,1 hPa 0,0 l/m 0 min 0 min 0,0 UV-I 0 W/m 0,0 km/h (0 Bft)
12.10.2013 00:18 6,7 C 5,6 C 98 % 1016,9 hPa 0,0 l/m 0 min 0 min 0,0 UV-I 0 W/m 0,0 km/h (0 Bft)
12.10.2013 00:20 6,7 C 6,1 C 98 % 1017,0 hPa 0,0 l/m 0 min 0 min 0,0 UV-I 0 W/m 0,0 km/h (0 Bft)
12.10.2013 00:22 6,8 C 6,1 C 98 % 1017,1 hPa 0,0 l/m 0 min 0 min 0,0 UV-I 0 W/m 0,0 km/h (0 Bft)
12.10.2013 00:24 6,8 C 6,1 C 98 % 1017,1 hPa 0,0 l/m 0 min 0 min 0,0 UV-I 0 W/m 0,0 km/h (0 Bft)
12.10.2013 00:26 6,8 C 6,1 C 98 % 1017,1 hPa 0,0 l/m 0 min 0 min 0,0 UV-I 0 W/m 0,0 km/h (0 Bft)
12.10.2013 00:28 6,8 C 6,1 C 98 % 1017,1 hPa 0,0 l/m 0 min 0 min 0,0 UV-I 0 W/m 0,0 km/h (0 Bft)
12.10.2013 00:30 6,8 C 6,1 C 98 % 1017,1 hPa 0,0 l/m 0 min 0 min 0,0 UV-I 0 W/m 0,0 km/h (0 Bft)
12.10.2013 00:32 6,8 C 6,1 C 98 % 1017,2 hPa 0,0 l/m 0 min 0 min 0,0 UV-I 0 W/m 0,0 km/h (0 Bft)
12.10.2013 00:34 6,8 C 6,1 C 98 % 1017,2 hPa 0,0 l/m 0 min 0 min 0,0 UV-I 0 W/m 0,0 km/h (0 Bft)
12.10.2013 00:36 6,8 C 6,1 C 98 % 1017,1 hPa 0,0 l/m 0 min 0 min 0,0 UV-I 0 W/m 0,0 km/h (0 Bft)
12.10.2013 00:38 6,8 C 6,1 C 98 % 1017,1 hPa 0,0 l/m 0 min 0 min 0,0 UV-I 0 W/m 0,0 km/h (0 Bft)
12.10.2013 00:40 6,8 C 6,1 C 98 % 1017,1 hPa 0,0 l/m 0 min 0 min 0,0 UV-I 0 W/m 0,0 km/h (0 Bft)
12.10.2013 00:42 6,8 C 6,1 C 98 % 1017,0 hPa 0,0 l/m 0 min 0 min 0,0 UV-I 0 W/m 0,0 km/h (0 Bft)
12.10.2013 00:44 6,8 C 6,1 C 98 % 1017,0 hPa 0,0 l/m 0 min 0 min 0,0 UV-I 0 W/m 0,0 km/h (0 Bft)
12.10.2013 00:46 6,8 C 6,1 C 98 % 1017,0 hPa 0,0 l/m 0 min 0 min 0,0 UV-I 0 W/m 0,0 km/h (0 Bft)
12.10.2013 00:48 6,8 C 6,1 C 98 % 1017,0 hPa 0,0 l/m 0 min 0 min 0,0 UV-I 0 W/m 0,0 km/h (0 Bft)
12.10.2013 00:50 6,8 C 6,1 C 98 % 1017,0 hPa 0,0 l/m 0 min 0 min 0,0 UV-I 0 W/m 0,0 km/h (0 Bft)
12.10.2013 00:52 6,8 C 6,1 C 98 % 1017,1 hPa 0,0 l/m 0 min 0 min 0,0 UV-I 0 W/m 0,0 km/h (0 Bft)
12.10.2013 00:54 6,8 C 6,1 C 98 % 1017,1 hPa 0,0 l/m 0 min 0 min 0,0 UV-I 0 W/m 0,0 km/h (0 Bft)
12.10.2013 00:56 6,8 C 5,6 C 98 % 1017,2 hPa 0,0 l/m 0 min 0 min 0,0 UV-I 0 W/m 2,6 km/h (1 Bft)
12.10.2013 00:58 6,8 C 5,6 C 98 % 1017,2 hPa 0,0 l/m 0 min 0 min 0,0 UV-I 0 W/m 0,0 km/h (0 Bft)
12.10.2013 01:00 6,7 C 5,6 C 98 % 1017,2 hPa 0,0 l/m 0 min 0 min 0,0 UV-I 0 W/m 0,0 km/h (0 Bft)
12.10.2013 01:02 6,7 C 5,6 C 98 % 1017,2 hPa 0,0 l/m 0 min 0 min 0,0 UV-I 0 W/m 0,0 km/h (0 Bft)
12.10.2013 01:06 6,7 C 5,6 C 98 % 1017,3 hPa 0,0 l/m 0 min 0 min 0,0 UV-I 0 W/m 0,0 km/h (0 Bft)
12.10.2013 01:08 6,7 C 5,6 C 98 % 1017,3 hPa 0,0 l/m 0 min 0 min 0,0 UV-I 0 W/m 2,6 km/h (1 Bft)
12.10.2013 01:10 6,7 C 5,6 C 98 % 1017,2 hPa 0,0 l/m 0 min 0 min 0,0 UV-I 0 W/m 0,0 km/h (0 Bft)
12.10.2013 01:12 6,6 C 5,6 C 98 % 1017,2 hPa 0,0 l/m 0 min 0 min 0,0 UV-I 0 W/m 0,0 km/h (0 Bft)
12.10.2013 01:14 6,6 C 5,6 C 98 % 1017,3 hPa 0,0 l/m 0 min 0 min 0,0 UV-I 0 W/m 0,0 km/h (0 Bft)
12.10.2013 01:16 6,6 C 5,6 C 98 % 1017,3 hPa 0,0 l/m 0 min 0 min 0,0 UV-I 0 W/m 0,0 km/h (0 Bft)
12.10.2013 01:18 6,5 C 5,6 C 98 % 1017,3 hPa 0,0 l/m 0 min 0 min 0,0 UV-I 0 W/m 0,0 km/h (0 Bft)
12.10.2013 01:20 6,4 C 5,0 C 98 % 1017,3 hPa 0,0 l/m 0 min 0 min 0,0 UV-I 0 W/m 0,0 km/h (0 Bft)
12.10.2013 01:22 6,4 C 5,0 C 98 % 1017,2 hPa 0,0 l/m 0 min 0 min 0,0 UV-I 0 W/m 0,0 km/h (0 Bft)
12.10.2013 01:24 6,4 C 5,0 C 98 % 1017,1 hPa 0,0 l/m 0 min 0 min 0,0 UV-I 0 W/m 0,0 km/h (0 Bft)
12.10.2013 01:26 6,4 C 5,0 C 98 % 1017,3 hPa 0,0 l/m 0 min 0 min 0,0 UV-I 0 W/m 0,0 km/h (0 Bft)
12.10.2013 01:28 6,4 C 5,0 C 98 % 1017,3 hPa 0,0 l/m 0 min 0 min 0,0 UV-I 0 W/m 0,0 km/h (0 Bft)
12.10.2013 01:30 6,3 C 5,0 C 98 % 1017,3 hPa 0,0 l/m 0 min 0 min 0,0 UV-I 0 W/m 0,0 km/h (0 Bft)
12.10.2013 01:32 6,3 C 5,0 C 98 % 1017,3 hPa 0,0 l/m 0 min 0 min 0,0 UV-I 0 W/m 0,0 km/h (0 Bft)
12.10.2013 01:34 6,2 C 5,0 C 98 % 1017,3 hPa 0,0 l/m 0 min 0 min 0,0 UV-I 0 W/m 0,0 km/h (0 Bft)
12.10.2013 01:36 6,2 C 5,0 C 98 % 1017,3 hPa 0,0 l/m 0 min 0 min 0,0 UV-I 0 W/m 0,0 km/h (0 Bft)
12.10.2013 01:38 6,2 C 5,0 C 98 % 1017,3 hPa 0,0 l/m 0 min 0 min 0,0 UV-I 0 W/m 0,0 km/h (0 Bft)
12.10.2013 01:40 6,2 C 5,0 C 98 % 1017,3 hPa 0,0 l/m 0 min 0 min 0,0 UV-I 0 W/m 0,0 km/h (0 Bft)
12.10.2013 01:42 6,1 C 5,0 C 98 % 1017,3 hPa 0,0 l/m 0 min 0 min 0,0 UV-I 0 W/m 0,0 km/h (0 Bft)
12.10.2013 01:44 6,1 C 5,0 C 98 % 1017,3 hPa 0,0 l/m 0 min 0 min 0,0 UV-I 0 W/m 0,0 km/h (0 Bft)
12.10.2013 01:46 6,1 C 5,0 C 98 % 1017,3 hPa 0,0 l/m 0 min 0 min 0,0 UV-I 0 W/m 0,0 km/h (0 Bft)
12.10.2013 01:48 6,1 C 5,0 C 98 % 1017,4 hPa 0,0 l/m 0 min 0 min 0,0 UV-I 0 W/m 0,0 km/h (0 Bft)
12.10.2013 01:50 6,1 C 5,0 C 98 % 1017,4 hPa 0,0 l/m 0 min 0 min 0,0 UV-I 0 W/m 0,0 km/h (0 Bft)
12.10.2013 01:52 6,1 C 5,0 C 98 % 1017,6 hPa 0,0 l/m 0 min 0 min 0,0 UV-I 0 W/m 0,0 km/h (0 Bft)
12.10.2013 01:54 6,1 C 5,0 C 98 % 1017,6 hPa 0,0 l/m 0 min 0 min 0,0 UV-I 0 W/m 0,0 km/h (0 Bft)
12.10.2013 01:56 6,1 C 5,0 C 98 % 1017,7 hPa 0,0 l/m 0 min 0 min 0,0 UV-I 0 W/m 0,0 km/h (0 Bft)
12.10.2013 01:58 6,1 C 5,0 C 98 % 1017,7 hPa 0,0 l/m 0 min 0 min 0,0 UV-I 0 W/m 0,0 km/h (0 Bft)
12.10.2013 02:00 6,0 C 5,0 C 98 % 1017,7 hPa 0,0 l/m 0 min 0 min 0,0 UV-I 0 W/m 0,0 km/h (0 Bft)
12.10.2013 02:02 6,0 C 5,0 C 98 % 1017,6 hPa 0,0 l/m 0 min 0 min 0,0 UV-I 0 W/m 0,0 km/h (0 Bft)
12.10.2013 02:06 6,0 C 5,0 C 98 % 1017,8 hPa 0,0 l/m 0 min 0 min 0,0 UV-I 0 W/m 0,0 km/h (0 Bft)
12.10.2013 02:08 5,9 C 5,0 C 98 % 1017,8 hPa 0,0 l/m 0 min 0 min 0,0 UV-I 0 W/m 0,0 km/h (0 Bft)
12.10.2013 02:10 5,9 C 5,0 C 98 % 1017,8 hPa 0,0 l/m 0 min 0 min 0,0 UV-I 0 W/m 0,0 km/h (0 Bft)
12.10.2013 02:12 5,9 C 4,4 C 98 % 1017,8 hPa 0,0 l/m 0 min 0 min 0,0 UV-I 0 W/m 0,0 km/h (0 Bft)
12.10.2013 02:14 5,8 C 4,4 C 98 % 1017,9 hPa 0,0 l/m 0 min 0 min 0,0 UV-I 0 W/m 0,0 km/h (0 Bft)
12.10.2013 02:16 5,8 C 4,4 C 98 % 1017,9 hPa 0,0 l/m 0 min 0 min 0,0 UV-I 0 W/m 2,6 km/h (1 Bft)
12.10.2013 02:18 5,8 C 4,4 C 98 % 1017,9 hPa 0,0 l/m 0 min 0 min 0,0 UV-I 0 W/m 2,6 km/h (1 Bft)
12.10.2013 02:20 5,8 C 5,0 C 98 % 1017,9 hPa 0,0 l/m 0 min 0 min 0,0 UV-I 0 W/m 5,1 km/h (1 Bft)
12.10.2013 02:22 5,8 C 5,0 C 98 % 1018,0 hPa 0,0 l/m 0 min 0 min 0,0 UV-I 0 W/m 0,0 km/h (0 Bft)
12.10.2013 02:24 5,8 C 5,0 C 98 % 1018,1 hPa 0,0 l/m 0 min 0 min 0,0 UV-I 0 W/m 5,1 km/h (1 Bft)
12.10.2013 02:26 5,9 C 5,0 C 98 % 1018,2 hPa 0,0 l/m 0 min 0 min 0,0 UV-I 0 W/m 0,0 km/h (0 Bft)
12.10.2013 02:28 5,9 C 5,0 C 98 % 1018,2 hPa 0,0 l/m 0 min 0 min 0,0 UV-I 0 W/m 2,6 km/h (1 Bft)
12.10.2013 02:30 5,9 C 5,0 C 98 % 1018,2 hPa 0,0 l/m 0 min 0 min 0,0 UV-I 0 W/m 7,7 km/h (2 Bft)
12.10.2013 02:32 5,9 C 5,0 C 98 % 1018,3 hPa 0,0 l/m 0 min 0 min 0,0 UV-I 0 W/m 12,9 km/h (3 Bft)
12.10.2013 02:34 5,9 C 5,0 C 98 % 1018,1 hPa 0,0 l/m 0 min 0 min 0,0 UV-I 0 W/m 0,0 km/h (0 Bft)
12.10.2013 02:36 5,9 C 5,0 C 98 % 1018,0 hPa 0,0 l/m 0 min 0 min 0,0 UV-I 0 W/m 5,1 km/h (1 Bft)
12.10.2013 02:38 5,9 C 5,0 C 98 % 1018,0 hPa 0,0 l/m 0 min 0 min 0,0 UV-I 0 W/m 7,7 km/h (2 Bft)
12.10.2013 02:40 5,9 C 5,0 C 98 % 1018,3 hPa 0,0 l/m 0 min 0 min 0,0 UV-I 0 W/m 2,6 km/h (1 Bft)
12.10.2013 02:42 5,9 C 5,0 C 98 % 1018,3 hPa 0,0 l/m 0 min 0 min 0,0 UV-I 0 W/m 10,3 km/h (2 Bft)
12.10.2013 02:44 5,9 C 5,0 C 98 % 1018,4 hPa 0,0 l/m 0 min 0 min 0,0 UV-I 0 W/m 7,7 km/h (2 Bft)
12.10.2013 02:46 5,8 C 5,0 C 98 % 1018,3 hPa 0,0 l/m 0 min 0 min 0,0 UV-I 0 W/m 5,1 km/h (1 Bft)
12.10.2013 02:48 5,8 C 4,4 C 98 % 1018,4 hPa 0,0 l/m 0 min 0 min 0,0 UV-I 0 W/m 0,0 km/h (0 Bft)
12.10.2013 02:50 5,7 C 4,4 C 98 % 1018,4 hPa 0,0 l/m 0 min 0 min 0,0 UV-I 0 W/m 0,0 km/h (0 Bft)
12.10.2013 02:52 5,7 C 4,4 C 98 % 1018,4 hPa 0,0 l/m 0 min 0 min 0,0 UV-I 0 W/m 0,0 km/h (0 Bft)
12.10.2013 02:54 5,6 C 4,4 C 98 % 1018,3 hPa 0,0 l/m 0 min 0 min 0,0 UV-I 0 W/m 0,0 km/h (0 Bft)
12.10.2013 02:56 5,6 C 4,4 C 98 % 1018,4 hPa 0,0 l/m 0 min 0 min 0,0 UV-I 0 W/m 0,0 km/h (0 Bft)
12.10.2013 02:58 5,5 C 4,4 C 98 % 1018,3 hPa 0,0 l/m 0 min 0 min 0,0 UV-I 0 W/m 0,0 km/h (0 Bft)
12.10.2013 03:00 5,5 C 4,4 C 98 % 1018,3 hPa 0,0 l/m 0 min 0 min 0,0 UV-I 0 W/m 0,0 km/h (0 Bft)
12.10.2013 03:02 5,4 C 4,4 C 98 % 1018,3 hPa 0,0 l/m 0 min 0 min 0,0 UV-I 0 W/m 0,0 km/h (0 Bft)
12.10.2013 03:06 5,4 C 4,4 C 98 % 1018,3 hPa 0,0 l/m 0 min 0 min 0,0 UV-I 0 W/m 2,6 km/h (1 Bft)
12.10.2013 03:08 5,4 C 4,4 C 98 % 1018,4 hPa 0,0 l/m 0 min 0 min 0,0 UV-I 0 W/m 2,6 km/h (1 Bft)
12.10.2013 03:10 5,3 C 4,4 C 98 % 1018,4 hPa 0,0 l/m 0 min 0 min 0,0 UV-I 0 W/m 0,0 km/h (0 Bft)
12.10.2013 03:12 5,3 C 3,9 C 98 % 1018,3 hPa 0,0 l/m 0 min 0 min 0,0 UV-I 0 W/m 0,0 km/h (0 Bft)
12.10.2013 03:14 5,2 C 3,9 C 98 % 1018,3 hPa 0,0 l/m 0 min 0 min 0,0 UV-I 0 W/m 0,0 km/h (0 Bft)
12.10.2013 03:16 5,2 C 3,9 C 98 % 1018,3 hPa 0,0 l/m 0 min 0 min 0,0 UV-I 0 W/m 0,0 km/h (0 Bft)
12.10.2013 03:18 5,1 C 3,9 C 98 % 1018,3 hPa 0,0 l/m 0 min 0 min 0,0 UV-I 0 W/m 0,0 km/h (0 Bft)
12.10.2013 03:20 5,1 C 3,9 C 98 % 1018,3 hPa 0,0 l/m 0 min 0 min 0,0 UV-I 0 W/m 0,0 km/h (0 Bft)
12.10.2013 03:22 5,0 C 3,9 C 98 % 1018,4 hPa 0,0 l/m 0 min 0 min 0,0 UV-I 0 W/m 0,0 km/h (0 Bft)
12.10.2013 03:24 5,0 C 3,9 C 98 % 1018,3 hPa 0,0 l/m 0 min 0 min 0,0 UV-I 0 W/m 0,0 km/h (0 Bft)
12.10.2013 03:26 4,9 C 3,9 C 98 % 1018,4 hPa 0,0 l/m 0 min 0 min 0,0 UV-I 0 W/m 0,0 km/h (0 Bft)
12.10.2013 03:28 4,9 C 3,3 C 98 % 1018,4 hPa 0,0 l/m 0 min 0 min 0,0 UV-I 0 W/m 0,0 km/h (0 Bft)
12.10.2013 03:30 4,8 C 3,3 C 98 % 1018,4 hPa 0,0 l/m 0 min 0 min 0,0 UV-I 0 W/m 0,0 km/h (0 Bft)
12.10.2013 03:32 4,7 C 3,3 C 98 % 1018,4 hPa 0,0 l/m 0 min 0 min 0,0 UV-I 0 W/m 0,0 km/h (0 Bft)
12.10.2013 03:34 4,7 C 3,3 C 98 % 1018,4 hPa 0,0 l/m 0 min 0 min 0,0 UV-I 0 W/m 0,0 km/h (0 Bft)
12.10.2013 03:36 4,7 C 3,3 C 98 % 1018,5 hPa 0,0 l/m 0 min 0 min 0,0 UV-I 0 W/m 0,0 km/h (0 Bft)
12.10.2013 03:38 4,7 C 3,3 C 98 % 1018,5 hPa 0,0 l/m 0 min 0 min 0,0 UV-I 0 W/m 0,0 km/h (0 Bft)
12.10.2013 03:40 4,7 C 3,3 C 98 % 1018,5 hPa 0,0 l/m 0 min 0 min 0,0 UV-I 0 W/m 0,0 km/h (0 Bft)
12.10.2013 03:42 4,7 C 3,3 C 98 % 1018,5 hPa 0,0 l/m 0 min 0 min 0,0 UV-I 0 W/m 0,0 km/h (0 Bft)
12.10.2013 03:44 4,6 C 3,3 C 98 % 1018,4 hPa 0,0 l/m 0 min 0 min 0,0 UV-I 0 W/m 0,0 km/h (0 Bft)
12.10.2013 03:46 4,6 C 3,3 C 98 % 1018,4 hPa 0,0 l/m 0 min 0 min 0,0 UV-I 0 W/m 0,0 km/h (0 Bft)
12.10.2013 03:48 4,5 C 3,3 C 98 % 1018,4 hPa 0,0 l/m 0 min 0 min 0,0 UV-I 0 W/m 0,0 km/h (0 Bft)
12.10.2013 03:50 4,5 C 3,3 C 98 % 1018,5 hPa 0,0 l/m 0 min 0 min 0,0 UV-I 0 W/m 0,0 km/h (0 Bft)
12.10.2013 03:52 4,5 C 3,3 C 98 % 1018,5 hPa 0,0 l/m 0 min 0 min 0,0 UV-I 0 W/m 0,0 km/h (0 Bft)
12.10.2013 03:54 4,5 C 3,3 C 98 % 1018,6 hPa 0,0 l/m 0 min 0 min 0,0 UV-I 0 W/m 0,0 km/h (0 Bft)
12.10.2013 03:56 4,5 C 3,3 C 98 % 1018,6 hPa 0,0 l/m 0 min 0 min 0,0 UV-I 0 W/m 2,6 km/h (1 Bft)
12.10.2013 03:58 4,5 C 3,3 C 98 % 1018,6 hPa 0,0 l/m 0 min 0 min 0,0 UV-I 0 W/m 5,1 km/h (1 Bft)
12.10.2013 04:00 4,5 C 3,3 C 98 % 1018,7 hPa 0,0 l/m 0 min 0 min 0,0 UV-I 0 W/m 0,0 km/h (0 Bft)
12.10.2013 04:02 4,5 C 3,3 C 98 % 1018,6 hPa 0,0 l/m 0 min 0 min 0,0 UV-I 0 W/m 0,0 km/h (0 Bft)
12.10.2013 04:06 4,5 C 3,3 C 98 % 1018,7 hPa 0,0 l/m 0 min 0 min 0,0 UV-I 0 W/m 0,0 km/h (0 Bft)
12.10.2013 04:08 4,6 C 3,3 C 98 % 1018,7 hPa 0,0 l/m 0 min 0 min 0,0 UV-I 0 W/m 5,1 km/h (1 Bft)
12.10.2013 04:10 4,6 C 3,3 C 98 % 1018,8 hPa 0,0 l/m 0 min 0 min 0,0 UV-I 0 W/m 0,0 km/h (0 Bft)
12.10.2013 04:12 4,5 C 3,3 C 98 % 1018,8 hPa 0,0 l/m 0 min 0 min 0,0 UV-I 0 W/m 0,0 km/h (0 Bft)
12.10.2013 04:14 4,5 C 3,3 C 98 % 1018,8 hPa 0,0 l/m 0 min 0 min 0,0 UV-I 0 W/m 0,0 km/h (0 Bft)
12.10.2013 04:16 4,4 C 3,3 C 98 % 1018,8 hPa 0,0 l/m 0 min 0 min 0,0 UV-I 0 W/m 0,0 km/h (0 Bft)
12.10.2013 04:18 4,4 C 3,3 C 98 % 1018,9 hPa 0,0 l/m 0 min 0 min 0,0 UV-I 0 W/m 0,0 km/h (0 Bft)
12.10.2013 04:20 4,4 C 3,3 C 98 % 1018,9 hPa 0,0 l/m 0 min 0 min 0,0 UV-I 0 W/m 0,0 km/h (0 Bft)
12.10.2013 04:22 4,4 C 3,3 C 98 % 1018,9 hPa 0,0 l/m 0 min 0 min 0,0 UV-I 0 W/m 0,0 km/h (0 Bft)
12.10.2013 04:24 4,3 C 3,3 C 98 % 1018,9 hPa 0,0 l/m 0 min 0 min 0,0 UV-I 0 W/m 0,0 km/h (0 Bft)
12.10.2013 04:26 4,3 C 3,3 C 98 % 1019,0 hPa 0,0 l/m 0 min 0 min 0,0 UV-I 0 W/m 0,0 km/h (0 Bft)
12.10.2013 04:28 4,3 C 3,3 C 98 % 1018,9 hPa 0,0 l/m 0 min 0 min 0,0 UV-I 0 W/m 0,0 km/h (0 Bft)
12.10.2013 04:30 4,3 C 3,3 C 98 % 1018,9 hPa 0,0 l/m 0 min 0 min 0,0 UV-I 0 W/m 0,0 km/h (0 Bft)
12.10.2013 04:32 4,3 C 2,8 C 98 % 1019,0 hPa 0,0 l/m 0 min 0 min 0,0 UV-I 0 W/m 0,0 km/h (0 Bft)
12.10.2013 04:34 4,2 C 2,8 C 98 % 1018,9 hPa 0,0 l/m 0 min 0 min 0,0 UV-I 0 W/m 0,0 km/h (0 Bft)
12.10.2013 04:36 4,2 C 2,8 C 98 % 1019,0 hPa 0,0 l/m 0 min 0 min 0,0 UV-I 0 W/m 0,0 km/h (0 Bft)
12.10.2013 04:38 4,2 C 2,8 C 98 % 1019,0 hPa 0,0 l/m 0 min 0 min 0,0 UV-I 0 W/m 0,0 km/h (0 Bft)
12.10.2013 04:40 4,2 C 2,8 C 98 % 1019,0 hPa 0,0 l/m 0 min 0 min 0,0 UV-I 0 W/m 0,0 km/h (0 Bft)
12.10.2013 04:42 4,2 C 3,3 C 98 % 1018,9 hPa 0,0 l/m 0 min 0 min 0,0 UV-I 0 W/m 0,0 km/h (0 Bft)
12.10.2013 04:44 4,2 C 3,3 C 98 % 1018,9 hPa 0,0 l/m 0 min 0 min 0,0 UV-I 0 W/m 2,6 km/h (1 Bft)
12.10.2013 04:46 4,2 C 3,3 C 98 % 1018,8 hPa 0,0 l/m 0 min 0 min 0,0 UV-I 0 W/m 0,0 km/h (0 Bft)
12.10.2013 04:48 4,2 C 3,3 C 98 % 1018,8 hPa 0,0 l/m 0 min 0 min 0,0 UV-I 0 W/m 0,0 km/h (0 Bft)
12.10.2013 04:50 4,2 C 2,8 C 98 % 1018,9 hPa 0,0 l/m 0 min 0 min 0,0 UV-I 0 W/m 0,0 km/h (0 Bft)
12.10.2013 04:52 4,2 C 2,8 C 98 % 1018,9 hPa 0,0 l/m 0 min 0 min 0,0 UV-I 0 W/m 0,0 km/h (0 Bft)
12.10.2013 04:54 4,2 C 2,8 C 98 % 1018,9 hPa 0,0 l/m 0 min 0 min 0,0 UV-I 0 W/m 0,0 km/h (0 Bft)
12.10.2013 04:56 4,1 C 2,8 C 98 % 1018,9 hPa 0,0 l/m 0 min 0 min 0,0 UV-I 0 W/m 0,0 km/h (0 Bft)
12.10.2013 04:58 4,1 C 2,8 C 98 % 1018,9 hPa 0,0 l/m 0 min 0 min 0,0 UV-I 0 W/m 0,0 km/h (0 Bft)
12.10.2013 05:00 4,1 C 2,8 C 98 % 1018,9 hPa 0,0 l/m 0 min 0 min 0,0 UV-I 0 W/m 0,0 km/h (0 Bft)
12.10.2013 05:02 4,1 C 2,8 C 98 % 1018,8 hPa 0,0 l/m 0 min 0 min 0,0 UV-I 0 W/m 0,0 km/h (0 Bft)
12.10.2013 05:06 4,0 C 2,8 C 98 % 1018,8 hPa 0,0 l/m 0 min 0 min 0,0 UV-I 0 W/m 0,0 km/h (0 Bft)
12.10.2013 05:08 4,0 C 2,8 C 98 % 1018,8 hPa 0,0 l/m 0 min 0 min 0,0 UV-I 0 W/m 0,0 km/h (0 Bft)
12.10.2013 05:10 4,0 C 2,8 C 98 % 1018,9 hPa 0,0 l/m 0 min 0 min 0,0 UV-I 0 W/m 0,0 km/h (0 Bft)
12.10.2013 05:12 3,9 C 2,8 C 98 % 1018,8 hPa 0,0 l/m 0 min 0 min 0,0 UV-I 0 W/m 0,0 km/h (0 Bft)
12.10.2013 05:14 3,9 C 2,8 C 98 % 1018,8 hPa 0,0 l/m 0 min 0 min 0,0 UV-I 0 W/m 0,0 km/h (0 Bft)
12.10.2013 05:16 3,9 C 2,8 C 98 % 1018,8 hPa 0,0 l/m 0 min 0 min 0,0 UV-I 0 W/m 0,0 km/h (0 Bft)
12.10.2013 05:18 3,8 C 2,2 C 98 % 1018,8 hPa 0,0 l/m 0 min 0 min 0,0 UV-I 0 W/m 0,0 km/h (0 Bft)
12.10.2013 05:20 3,8 C 2,2 C 98 % 1018,8 hPa 0,0 l/m 0 min 0 min 0,0 UV-I 0 W/m 0,0 km/h (0 Bft)
12.10.2013 05:22 3,7 C 2,2 C 98 % 1018,8 hPa 0,0 l/m 0 min 0 min 0,0 UV-I 0 W/m 0,0 km/h (0 Bft)
12.10.2013 05:24 3,7 C 2,2 C 98 % 1018,9 hPa 0,0 l/m 0 min 0 min 0,0 UV-I 0 W/m 0,0 km/h (0 Bft)
12.10.2013 05:26 3,6 C 2,2 C 98 % 1018,9 hPa 0,0 l/m 0 min 0 min 0,0 UV-I 0 W/m 0,0 km/h (0 Bft)
12.10.2013 05:28 3,6 C 2,2 C 98 % 1018,8 hPa 0,0 l/m 0 min 0 min 0,0 UV-I 0 W/m 0,0 km/h (0 Bft)
12.10.2013 05:30 3,6 C 2,2 C 98 % 1018,9 hPa 0,0 l/m 0 min 0 min 0,0 UV-I 0 W/m 0,0 km/h (0 Bft)
12.10.2013 05:32 3,5 C 2,2 C 98 % 1018,9 hPa 0,0 l/m 0 min 0 min 0,0 UV-I 0 W/m 0,0 km/h (0 Bft)
12.10.2013 05:34 3,4 C 2,2 C 98 % 1018,9 hPa 0,0 l/m 0 min 0 min 0,0 UV-I 0 W/m 0,0 km/h (0 Bft)
12.10.2013 05:36 3,4 C 2,2 C 98 % 1018,8 hPa 0,0 l/m 0 min 0 min 0,0 UV-I 0 W/m 0,0 km/h (0 Bft)
12.10.2013 05:38 3,4 C 2,2 C 98 % 1018,9 hPa 0,0 l/m 0 min 0 min 0,0 UV-I 0 W/m 0,0 km/h (0 Bft)
12.10.2013 05:40 3,4 C 2,2 C 98 % 1018,9 hPa 0,0 l/m 0 min 0 min 0,0 UV-I 0 W/m 0,0 km/h (0 Bft)
12.10.2013 05:42 3,4 C 2,2 C 98 % 1019,0 hPa 0,0 l/m 0 min 0 min 0,0 UV-I 0 W/m 0,0 km/h (0 Bft)
12.10.2013 05:44 3,3 C 2,2 C 98 % 1018,9 hPa 0,0 l/m 0 min 0 min 0,0 UV-I 0 W/m 0,0 km/h (0 Bft)
12.10.2013 05:46 3,3 C 1,7 C 98 % 1018,9 hPa 0,0 l/m 0 min 0 min 0,0 UV-I 0 W/m 0,0 km/h (0 Bft)
12.10.2013 05:48 3,3 C 2,2 C 98 % 1018,9 hPa 0,0 l/m 0 min 0 min 0,0 UV-I 0 W/m 0,0 km/h (0 Bft)
12.10.2013 05:50 3,3 C 2,2 C 98 % 1019,0 hPa 0,0 l/m 0 min 0 min 0,0 UV-I 0 W/m 0,0 km/h (0 Bft)
12.10.2013 05:52 3,3 C 2,2 C 98 % 1019,0 hPa 0,0 l/m 0 min 0 min 0,0 UV-I 0 W/m 0,0 km/h (0 Bft)
12.10.2013 05:54 3,3 C 2,2 C 98 % 1019,0 hPa 0,0 l/m 0 min 0 min 0,0 UV-I 0 W/m 0,0 km/h (0 Bft)
12.10.2013 05:56 3,3 C 2,2 C 98 % 1019,0 hPa 0,0 l/m 0 min 0 min 0,0 UV-I 0 W/m 0,0 km/h (0 Bft)
12.10.2013 05:58 3,4 C 2,2 C 98 % 1019,0 hPa 0,0 l/m 0 min 0 min 0,0 UV-I 0 W/m 0,0 km/h (0 Bft)
12.10.2013 06:00 3,3 C 2,2 C 98 % 1019,0 hPa 0,0 l/m 0 min 0 min 0,0 UV-I 0 W/m 0,0 km/h (0 Bft)
12.10.2013 06:02 3,3 C 2,2 C 98 % 1018,9 hPa 0,0 l/m 0 min 0 min 0,0 UV-I 0 W/m 0,0 km/h (0 Bft)
12.10.2013 06:06 3,3 C 2,2 C 98 % 1019,0 hPa 0,0 l/m 0 min 0 min 0,0 UV-I 0 W/m 0,0 km/h (0 Bft)
12.10.2013 06:08 3,3 C 2,2 C 98 % 1019,0 hPa 0,0 l/m 0 min 0 min 0,0 UV-I 0 W/m 0,0 km/h (0 Bft)
12.10.2013 06:10 3,3 C 2,2 C 98 % 1018,9 hPa 0,0 l/m 0 min 2 min 0,0 UV-I 0 W/m 0,0 km/h (0 Bft)
12.10.2013 06:12 3,2 C 2,2 C 98 % 1018,9 hPa 0,0 l/m 0 min 0 min 0,0 UV-I 0 W/m 0,0 km/h (0 Bft)
12.10.2013 06:14 3,2 C 2,2 C 98 % 1018,9 hPa 0,0 l/m 0 min 0 min 0,0 UV-I 0 W/m 0,0 km/h (0 Bft)
12.10.2013 06:16 3,1 C 2,2 C 98 % 1018,9 hPa 0,0 l/m 0 min 0 min 0,0 UV-I 0 W/m 0,0 km/h (0 Bft)
12.10.2013 06:18 3,0 C 2,2 C 98 % 1019,0 hPa 0,0 l/m 0 min 0 min 0,0 UV-I 0 W/m 0,0 km/h (0 Bft)
12.10.2013 06:20 2,9 C 1,7 C 98 % 1019,0 hPa 0,0 l/m 0 min 0 min 0,0 UV-I 0 W/m 0,0 km/h (0 Bft)
12.10.2013 06:22 2,9 C 1,7 C 98 % 1019,0 hPa 0,0 l/m 0 min 0 min 0,0 UV-I 0 W/m 0,0 km/h (0 Bft)
12.10.2013 06:24 2,9 C 1,7 C 98 % 1019,0 hPa 0,0 l/m 0 min 0 min 0,0 UV-I 0 W/m 0,0 km/h (0 Bft)
12.10.2013 06:26 2,9 C 1,7 C 98 % 1019,0 hPa 0,0 l/m 0 min 0 min 0,0 UV-I 0 W/m 0,0 km/h (0 Bft)
12.10.2013 06:28 2,9 C 2,2 C 98 % 1019,1 hPa 0,0 l/m 0 min 0 min 0,0 UV-I 0 W/m 0,0 km/h (0 Bft)
12.10.2013 06:30 2,9 C 2,2 C 98 % 1019,1 hPa 0,0 l/m 0 min 0 min 0,0 UV-I 0 W/m 0,0 km/h (0 Bft)
12.10.2013 06:32 2,9 C 1,7 C 98 % 1019,0 hPa 0,0 l/m 0 min 0 min 0,0 UV-I 0 W/m 0,0 km/h (0 Bft)
12.10.2013 06:34 2,8 C 1,7 C 98 % 1019,1 hPa 0,0 l/m 0 min 0 min 0,0 UV-I 0 W/m 0,0 km/h (0 Bft)
12.10.2013 06:36 2,8 C 1,7 C 98 % 1019,1 hPa 0,0 l/m 0 min 0 min 0,0 UV-I 0 W/m 0,0 km/h (0 Bft)
12.10.2013 06:38 2,7 C 1,7 C 98 % 1019,1 hPa 0,0 l/m 0 min 0 min 0,0 UV-I 0 W/m 0,0 km/h (0 Bft)
12.10.2013 06:40 2,7 C 1,7 C 98 % 1019,1 hPa 0,0 l/m 0 min 0 min 0,0 UV-I 0 W/m 0,0 km/h (0 Bft)
12.10.2013 06:42 2,6 C 1,7 C 98 % 1019,1 hPa 0,0 l/m 0 min 0 min 0,0 UV-I 0 W/m 0,0 km/h (0 Bft)
12.10.2013 06:44 2,6 C 1,7 C 98 % 1019,1 hPa 0,0 l/m 0 min 0 min 0,0 UV-I 0 W/m 0,0 km/h (0 Bft)
12.10.2013 06:46 2,6 C 1,7 C 98 % 1019,0 hPa 0,0 l/m 0 min 0 min 0,0 UV-I 0 W/m 0,0 km/h (0 Bft)
12.10.2013 06:48 2,6 C 1,7 C 98 % 1019,0 hPa 0,0 l/m 0 min 0 min 0,0 UV-I 0 W/m 0,0 km/h (0 Bft)
12.10.2013 06:50 2,6 C 1,7 C 98 % 1019,0 hPa 0,0 l/m 0 min 0 min 0,0 UV-I 0 W/m 0,0 km/h (0 Bft)
12.10.2013 06:52 2,6 C 1,7 C 98 % 1019,1 hPa 0,0 l/m 0 min 0 min 0,0 UV-I 0 W/m 0,0 km/h (0 Bft)
12.10.2013 06:54 2,6 C 1,7 C 98 % 1019,0 hPa 0,0 l/m 0 min 0 min 0,0 UV-I 0 W/m 0,0 km/h (0 Bft)
12.10.2013 06:56 2,6 C 1,1 C 98 % 1019,0 hPa 0,0 l/m 0 min 0 min 0,0 UV-I 0 W/m 0,0 km/h (0 Bft)
12.10.2013 06:58 2,5 C 1,1 C 98 % 1019,0 hPa 0,0 l/m 0 min 0 min 0,0 UV-I 0 W/m 0,0 km/h (0 Bft)
12.10.2013 07:00 2,4 C 1,1 C 98 % 1019,0 hPa 0,0 l/m 0 min 0 min 0,0 UV-I 0 W/m 0,0 km/h (0 Bft)
12.10.2013 07:02 2,4 C 1,1 C 98 % 1019,0 hPa 0,0 l/m 0 min 0 min 0,0 UV-I 0 W/m 0,0 km/h (0 Bft)
12.10.2013 07:06 2,4 C 1,1 C 98 % 1018,9 hPa 0,0 l/m 0 min 0 min 0,0 UV-I 0 W/m 0,0 km/h (0 Bft)
12.10.2013 07:08 2,3 C 1,1 C 98 % 1018,9 hPa 0,0 l/m 0 min 0 min 0,0 UV-I 0 W/m 0,0 km/h (0 Bft)
12.10.2013 07:10 2,4 C 1,1 C 98 % 1018,8 hPa 0,0 l/m 0 min 0 min 0,0 UV-I 0 W/m 0,0 km/h (0 Bft)
12.10.2013 07:12 2,4 C 1,1 C 98 % 1018,7 hPa 0,0 l/m 0 min 0 min 0,0 UV-I 0 W/m 0,0 km/h (0 Bft)
12.10.2013 07:14 2,4 C 1,1 C 98 % 1018,6 hPa 0,0 l/m 0 min 0 min 0,0 UV-I 0 W/m 0,0 km/h (0 Bft)
12.10.2013 07:16 2,4 C 1,1 C 98 % 1018,6 hPa 0,0 l/m 0 min 0 min 0,0 UV-I 0 W/m 0,0 km/h (0 Bft)
12.10.2013 07:18 2,4 C 1,1 C 98 % 1018,6 hPa 0,0 l/m 0 min 0 min 0,0 UV-I 0 W/m 0,0 km/h (0 Bft)
12.10.2013 07:20 2,4 C 1,1 C 98 % 1018,7 hPa 0,0 l/m 0 min 0 min 0,0 UV-I 0 W/m 0,0 km/h (0 Bft)
12.10.2013 07:22 2,4 C 1,1 C 98 % 1018,7 hPa 0,0 l/m 0 min 0 min 0,0 UV-I 0 W/m 0,0 km/h (0 Bft)
12.10.2013 07:24 2,4 C 1,1 C 98 % 1018,6 hPa 0,0 l/m 0 min 0 min 0,0 UV-I 0 W/m 0,0 km/h (0 Bft)
12.10.2013 07:26 2,4 C 1,1 C 98 % 1018,8 hPa 0,0 l/m 0 min 0 min 0,0 UV-I 0 W/m 0,0 km/h (0 Bft)
12.10.2013 07:28 2,3 C 1,1 C 98 % 1018,8 hPa 0,0 l/m 0 min 0 min 0,0 UV-I 0 W/m 0,0 km/h (0 Bft)
12.10.2013 07:30 2,3 C 1,1 C 98 % 1018,9 hPa 0,0 l/m 0 min 0 min 0,0 UV-I 0 W/m 0,0 km/h (0 Bft)
12.10.2013 07:32 2,3 C 1,1 C 98 % 1018,9 hPa 0,0 l/m 0 min 0 min 0,0 UV-I 0 W/m 0,0 km/h (0 Bft)
12.10.2013 07:34 2,2 C 1,1 C 98 % 1019,0 hPa 0,0 l/m 0 min 0 min 0,0 UV-I 0 W/m 0,0 km/h (0 Bft)
12.10.2013 07:36 2,2 C 1,1 C 98 % 1019,0 hPa 0,0 l/m 0 min 2 min 0,0 UV-I 0 W/m 0,0 km/h (0 Bft)
12.10.2013 07:38 2,1 C 1,1 C 98 % 1019,0 hPa 0,0 l/m 0 min 0 min 0,0 UV-I 0 W/m 0,0 km/h (0 Bft)
12.10.2013 07:40 2,1 C 1,1 C 98 % 1019,0 hPa 0,0 l/m 0 min 0 min 0,0 UV-I 0 W/m 0,0 km/h (0 Bft)
12.10.2013 07:42 2,2 C 1,1 C 98 % 1019,0 hPa 0,0 l/m 0 min 0 min 0,0 UV-I 0 W/m 0,0 km/h (0 Bft)
12.10.2013 07:44 2,1 C 1,1 C 98 % 1019,1 hPa 0,0 l/m 0 min 0 min 0,0 UV-I 0 W/m 0,0 km/h (0 Bft)
12.10.2013 07:46 2,1 C 1,1 C 98 % 1019,1 hPa 0,0 l/m 0 min 0 min 0,0 UV-I 0 W/m 0,0 km/h (0 Bft)
12.10.2013 07:48 2,1 C 1,1 C 98 % 1019,2 hPa 0,0 l/m 0 min 0 min 0,0 UV-I 0 W/m 0,0 km/h (0 Bft)
12.10.2013 07:50 2,1 C 1,1 C 98 % 1019,1 hPa 0,0 l/m 0 min 0 min 0,0 UV-I 0 W/m 0,0 km/h (0 Bft)
12.10.2013 07:52 2,1 C 1,1 C 98 % 1019,1 hPa 0,0 l/m 0 min 0 min 0,0 UV-I 5 W/m 0,0 km/h (0 Bft)
12.10.2013 07:54 2,1 C 1,1 C 98 % 1019,1 hPa 0,0 l/m 0 min 0 min 0,0 UV-I 7 W/m 0,0 km/h (0 Bft)
12.10.2013 07:56 2,2 C 1,1 C 98 % 1019,1 hPa 0,0 l/m 0 min 0 min 0,0 UV-I 9 W/m 0,0 km/h (0 Bft)
12.10.2013 07:58 2,2 C 1,1 C 98 % 1019,1 hPa 0,0 l/m 0 min 0 min 0,0 UV-I 11 W/m 0,0 km/h (0 Bft)
12.10.2013 08:00 2,2 C 1,1 C 98 % 1019,2 hPa 0,0 l/m 0 min 0 min 0,0 UV-I 12 W/m 0,0 km/h (0 Bft)
12.10.2013 08:02 2,2 C 1,1 C 98 % 1019,3 hPa 0,0 l/m 0 min 0 min 0,0 UV-I 14 W/m 0,0 km/h (0 Bft)
12.10.2013 08:06 2,2 C 1,1 C 98 % 1019,4 hPa 0,0 l/m 0 min 0 min 0,0 UV-I 16 W/m 0,0 km/h (0 Bft)
12.10.2013 08:08 2,2 C 1,1 C 98 % 1019,4 hPa 0,0 l/m 0 min 0 min 0,0 UV-I 16 W/m 0,0 km/h (0 Bft)
12.10.2013 08:10 2,3 C 1,1 C 98 % 1019,3 hPa 0,0 l/m 0 min 0 min 0,0 UV-I 18 W/m 0,0 km/h (0 Bft)
12.10.2013 08:12 2,4 C 1,1 C 98 % 1019,4 hPa 0,0 l/m 2 min 0 min 0,0 UV-I 21 W/m 0,0 km/h (0 Bft)
12.10.2013 08:14 2,4 C 1,7 C 98 % 1019,4 hPa 0,0 l/m 0 min 0 min 0,0 UV-I 23 W/m 0,0 km/h (0 Bft)
12.10.2013 08:16 2,4 C 1,7 C 98 % 1019,4 hPa 0,0 l/m 0 min 0 min 0,0 UV-I 25 W/m 0,0 km/h (0 Bft)
12.10.2013 08:18 2,4 C 1,7 C 98 % 1019,4 hPa 0,0 l/m 0 min 0 min 0,0 UV-I 25 W/m 0,0 km/h (0 Bft)
12.10.2013 08:20 2,5 C 1,7 C 98 % 1019,4 hPa 0,0 l/m 0 min 0 min 0,0 UV-I 26 W/m 0,0 km/h (0 Bft)
12.10.2013 08:22 2,6 C 1,7 C 98 % 1019,5 hPa 0,0 l/m 0 min 0 min 0,0 UV-I 28 W/m 0,0 km/h (0 Bft)
12.10.2013 08:24 2,6 C 1,7 C 98 % 1019,5 hPa 0,0 l/m 0 min 0 min 0,0 UV-I 30 W/m 0,0 km/h (0 Bft)
12.10.2013 08:26 2,6 C 1,7 C 98 % 1019,5 hPa 0,0 l/m 0 min 0 min 0,0 UV-I 32 W/m 0,0 km/h (0 Bft)
12.10.2013 08:28 2,7 C 1,7 C 98 % 1019,6 hPa 0,0 l/m 0 min 0 min 0,0 UV-I 35 W/m 0,0 km/h (0 Bft)
12.10.2013 08:30 2,8 C 2,2 C 98 % 1019,6 hPa 0,0 l/m 0 min 0 min 0,0 UV-I 37 W/m 0,0 km/h (0 Bft)
12.10.2013 08:32 2,9 C 2,2 C 98 % 1019,6 hPa 0,0 l/m 0 min 0 min 0,0 UV-I 37 W/m 0,0 km/h (0 Bft)
12.10.2013 08:34 2,9 C 2,2 C 98 % 1019,6 hPa 0,0 l/m 0 min 0 min 0,0 UV-I 39 W/m 0,0 km/h (0 Bft)
12.10.2013 08:36 2,9 C 2,2 C 98 % 1019,6 hPa 0,0 l/m 0 min 0 min 0,0 UV-I 39 W/m 0,0 km/h (0 Bft)
12.10.2013 08:38 2,9 C 2,2 C 98 % 1019,5 hPa 0,0 l/m 0 min 0 min 0,0 UV-I 37 W/m 0,0 km/h (0 Bft)
12.10.2013 08:40 2,9 C 2,2 C 98 % 1019,5 hPa 0,0 l/m 0 min 0 min 0,0 UV-I 33 W/m 0,0 km/h (0 Bft)
12.10.2013 08:42 2,9 C 2,2 C 98 % 1019,5 hPa 0,0 l/m 0 min 0 min 0,0 UV-I 33 W/m 0,0 km/h (0 Bft)
12.10.2013 08:44 2,9 C 2,2 C 98 % 1019,5 hPa 0,0 l/m 0 min 0 min 0,0 UV-I 33 W/m 0,0 km/h (0 Bft)
12.10.2013 08:46 2,9 C 2,2 C 98 % 1019,6 hPa 0,0 l/m 0 min 0 min 0,0 UV-I 35 W/m 0,0 km/h (0 Bft)
12.10.2013 08:48 2,9 C 2,2 C 98 % 1019,7 hPa 0,0 l/m 0 min 0 min 0,0 UV-I 37 W/m 0,0 km/h (0 Bft)
12.10.2013 08:50 2,9 C 2,2 C 98 % 1019,6 hPa 0,0 l/m 0 min 0 min 0,0 UV-I 40 W/m 0,0 km/h (0 Bft)
12.10.2013 08:52 2,9 C 2,2 C 98 % 1019,6 hPa 0,0 l/m 0 min 0 min 0,0 UV-I 42 W/m 0,0 km/h (0 Bft)
12.10.2013 08:54 2,9 C 2,2 C 98 % 1019,7 hPa 0,0 l/m 0 min 0 min 0,0 UV-I 44 W/m 0,0 km/h (0 Bft)
12.10.2013 08:56 2,9 C 2,2 C 98 % 1019,7 hPa 0,0 l/m 0 min 0 min 0,0 UV-I 47 W/m 0,0 km/h (0 Bft)
12.10.2013 08:58 2,9 C 2,2 C 98 % 1019,7 hPa 0,0 l/m 0 min 0 min 0,0 UV-I 76 W/m 0,0 km/h (0 Bft)
12.10.2013 09:00 3,0 C 2,2 C 99 % 1019,8 hPa 0,0 l/m 0 min 0 min 0,0 UV-I 77 W/m 0,0 km/h (0 Bft)
12.10.2013 09:02 3,1 C 2,2 C 99 % 1019,8 hPa 0,0 l/m 0 min 0 min 0,0 UV-I 70 W/m 0,0 km/h (0 Bft)
12.10.2013 09:06 3,2 C 2,8 C 98 % 1019,7 hPa 0,0 l/m 0 min 0 min 0,0 UV-I 79 W/m 0,0 km/h (0 Bft)
12.10.2013 09:08 3,2 C 2,8 C 98 % 1019,7 hPa 0,0 l/m 0 min 0 min 0,0 UV-I 77 W/m 0,0 km/h (0 Bft)
12.10.2013 09:10 3,3 C 2,8 C 98 % 1019,7 hPa 0,0 l/m 0 min 0 min 0,0 UV-I 76 W/m 0,0 km/h (0 Bft)
12.10.2013 09:12 3,3 C 2,8 C 99 % 1019,7 hPa 0,0 l/m 0 min 0 min 0,0 UV-I 70 W/m 0,0 km/h (0 Bft)
12.10.2013 09:14 3,4 C 2,8 C 99 % 1019,7 hPa 0,0 l/m 0 min 0 min 0,0 UV-I 62 W/m 0,0 km/h (0 Bft)
12.10.2013 09:16 3,4 C 2,8 C 99 % 1019,7 hPa 0,0 l/m 0 min 0 min 0,0 UV-I 65 W/m 0,0 km/h (0 Bft)
12.10.2013 09:18 3,4 C 2,8 C 99 % 1019,8 hPa 0,0 l/m 0 min 0 min 0,0 UV-I 70 W/m 0,0 km/h (0 Bft)
12.10.2013 09:20 3,5 C 2,8 C 98 % 1019,8 hPa 0,0 l/m 0 min 0 min 0,0 UV-I 76 W/m 0,0 km/h (0 Bft)
12.10.2013 09:22 3,5 C 2,8 C 98 % 1019,7 hPa 0,0 l/m 0 min 0 min 0,0 UV-I 76 W/m 0,0 km/h (0 Bft)
12.10.2013 09:24 3,5 C 2,8 C 98 % 1019,7 hPa 0,0 l/m 0 min 0 min 0,0 UV-I 72 W/m 0,0 km/h (0 Bft)
12.10.2013 09:26 3,6 C 2,8 C 98 % 1019,7 hPa 0,0 l/m 0 min 0 min 0,0 UV-I 69 W/m 0,0 km/h (0 Bft)
12.10.2013 09:28 3,6 C 2,8 C 98 % 1019,7 hPa 0,0 l/m 0 min 0 min 0,0 UV-I 67 W/m 0,0 km/h (0 Bft)
12.10.2013 09:30 3,6 C 2,8 C 98 % 1019,7 hPa 0,0 l/m 0 min 0 min 0,0 UV-I 69 W/m 0,0 km/h (0 Bft)
12.10.2013 09:32 3,6 C 2,8 C 98 % 1019,7 hPa 0,0 l/m 0 min 0 min 0,0 UV-I 74 W/m 0,0 km/h (0 Bft)
12.10.2013 09:34 3,6 C 2,8 C 99 % 1019,8 hPa 0,0 l/m 0 min 0 min 0,0 UV-I 76 W/m 0,0 km/h (0 Bft)
12.10.2013 09:36 3,7 C 3,3 C 99 % 1019,8 hPa 0,0 l/m 0 min 0 min 0,0 UV-I 76 W/m 0,0 km/h (0 Bft)
12.10.2013 09:38 3,8 C 3,3 C 99 % 1019,8 hPa 0,0 l/m 0 min 0 min 0,0 UV-I 72 W/m 0,0 km/h (0 Bft)
12.10.2013 09:40 3,8 C 3,3 C 99 % 1019,7 hPa 0,0 l/m 0 min 0 min 0,0 UV-I 67 W/m 0,0 km/h (0 Bft)
12.10.2013 09:42 3,9 C 3,3 C 99 % 1019,8 hPa 0,0 l/m 0 min 0 min 0,0 UV-I 63 W/m 0,0 km/h (0 Bft)
12.10.2013 09:44 3,9 C 3,3 C 99 % 1019,7 hPa 0,0 l/m 0 min 0 min 0,0 UV-I 62 W/m 0,0 km/h (0 Bft)
12.10.2013 09:46 4,0 C 3,3 C 99 % 1019,8 hPa 0,0 l/m 0 min 0 min 0,0 UV-I 60 W/m 0,0 km/h (0 Bft)
12.10.2013 09:48 4,0 C 3,3 C 99 % 1019,8 hPa 0,0 l/m 0 min 0 min 0,0 UV-I 58 W/m 0,0 km/h (0 Bft)
12.10.2013 09:50 4,1 C 3,3 C 99 % 1019,8 hPa 0,0 l/m 0 min 0 min 0,0 UV-I 53 W/m 0,0 km/h (0 Bft)
12.10.2013 09:52 4,1 C 3,3 C 99 % 1019,9 hPa 0,0 l/m 0 min 0 min 0,0 UV-I 53 W/m 0,0 km/h (0 Bft)
12.10.2013 09:54 4,1 C 3,3 C 99 % 1019,9 hPa 0,0 l/m 0 min 0 min 0,0 UV-I 53 W/m 0,0 km/h (0 Bft)
12.10.2013 09:56 4,1 C 3,3 C 99 % 1019,8 hPa 0,0 l/m 0 min 0 min 0,0 UV-I 49 W/m 0,0 km/h (0 Bft)
12.10.2013 09:58 4,0 C 3,3 C 99 % 1019,9 hPa 0,0 l/m 0 min 0 min 0,0 UV-I 47 W/m 0,0 km/h (0 Bft)
12.10.2013 10:00 4,0 C 3,3 C 99 % 1019,9 hPa 0,0 l/m 0 min 0 min 0,0 UV-I 49 W/m 0,0 km/h (0 Bft)
12.10.2013 10:02 4,0 C 3,3 C 99 % 1019,9 hPa 0,0 l/m 0 min 0 min 0,0 UV-I 56 W/m 0,0 km/h (0 Bft)
12.10.2013 10:06 4,0 C 3,3 C 99 % 1019,8 hPa 0,0 l/m 0 min 0 min 0,0 UV-I 70 W/m 0,0 km/h (0 Bft)
12.10.2013 10:08 4,1 C 3,3 C 99 % 1019,9 hPa 0,0 l/m 0 min 0 min 0,0 UV-I 79 W/m 0,0 km/h (0 Bft)
12.10.2013 10:10 4,1 C 3,3 C 99 % 1019,9 hPa 0,0 l/m 0 min 0 min 0,0 UV-I 84 W/m 0,0 km/h (0 Bft)
12.10.2013 10:12 4,1 C 3,3 C 99 % 1020,0 hPa 0,0 l/m 0 min 0 min 0,0 UV-I 91 W/m 0,0 km/h (0 Bft)
12.10.2013 10:14 4,2 C 3,9 C 99 % 1020,0 hPa 0,0 l/m 0 min 0 min 0,0 UV-I 98 W/m 0,0 km/h (0 Bft)
12.10.2013 10:16 4,2 C 3,9 C 99 % 1020,0 hPa 0,0 l/m 0 min 0 min 0,0 UV-I 100 W/m 0,0 km/h (0 Bft)
12.10.2013 10:18 4,4 C 3,9 C 99 % 1020,0 hPa 0,0 l/m 0 min 0 min 0,0 UV-I 102 W/m 0,0 km/h (0 Bft)
12.10.2013 10:20 4,4 C 3,9 C 99 % 1020,0 hPa 0,0 l/m 0 min 0 min 0,0 UV-I 100 W/m 0,0 km/h (0 Bft)
12.10.2013 10:22 4,4 C 3,9 C 99 % 1020,1 hPa 0,0 l/m 0 min 0 min 0,0 UV-I 100 W/m 0,0 km/h (0 Bft)
12.10.2013 10:24 4,4 C 3,9 C 99 % 1020,0 hPa 0,0 l/m 0 min 0 min 0,0 UV-I 102 W/m 0,0 km/h (0 Bft)
12.10.2013 10:26 4,4 C 3,9 C 99 % 1019,9 hPa 0,0 l/m 0 min 0 min 0,0 UV-I 105 W/m 0,0 km/h (0 Bft)
12.10.2013 10:28 4,4 C 3,9 C 99 % 1019,9 hPa 0,0 l/m 0 min 0 min 0,0 UV-I 107 W/m 0,0 km/h (0 Bft)
12.10.2013 10:30 4,4 C 3,9 C 99 % 1019,9 hPa 0,0 l/m 0 min 0 min 0,0 UV-I 111 W/m 0,0 km/h (0 Bft)
12.10.2013 10:32 4,4 C 3,9 C 99 % 1019,9 hPa 0,0 l/m 0 min 0 min 0,0 UV-I 116 W/m 0,0 km/h (0 Bft)
12.10.2013 10:34 4,5 C 4,4 C 99 % 1019,8 hPa 0,0 l/m 0 min 0 min 0,0 UV-I 121 W/m 0,0 km/h (0 Bft)
12.10.2013 10:36 4,5 C 4,4 C 99 % 1019,8 hPa 0,0 l/m 0 min 0 min 0,0 UV-I 127 W/m 0,0 km/h (0 Bft)
12.10.2013 10:38 4,6 C 4,4 C 99 % 1019,9 hPa 0,0 l/m 0 min 0 min 0,0 UV-I 135 W/m 0,0 km/h (0 Bft)
12.10.2013 10:40 4,6 C 4,4 C 99 % 1019,9 hPa 0,0 l/m 0 min 0 min 0,0 UV-I 139 W/m 0,0 km/h (0 Bft)
12.10.2013 10:42 4,7 C 4,4 C 99 % 1019,9 hPa 0,0 l/m 0 min 0 min 0,0 UV-I 146 W/m 0,0 km/h (0 Bft)
12.10.2013 10:44 4,8 C 5,0 C 99 % 1019,9 hPa 0,0 l/m 0 min 0 min 0,0 UV-I 149 W/m 0,0 km/h (0 Bft)
12.10.2013 10:46 4,9 C 5,0 C 99 % 1020,0 hPa 0,0 l/m 0 min 0 min 0,0 UV-I 151 W/m 0,0 km/h (0 Bft)
12.10.2013 10:48 4,9 C 5,0 C 99 % 1019,9 hPa 0,0 l/m 0 min 0 min 0,0 UV-I 153 W/m 0,0 km/h (0 Bft)
12.10.2013 10:50 5,1 C 5,0 C 99 % 1019,9 hPa 0,0 l/m 0 min 0 min 0,0 UV-I 155 W/m 0,0 km/h (0 Bft)
12.10.2013 10:52 5,2 C 5,0 C 99 % 1020,0 hPa 0,0 l/m 0 min 0 min 0,0 UV-I 176 W/m 0,0 km/h (0 Bft)
12.10.2013 10:54 5,2 C 5,0 C 99 % 1020,0 hPa 0,0 l/m 0 min 0 min 0,0 UV-I 167 W/m 0,0 km/h (0 Bft)
12.10.2013 10:56 5,3 C 5,0 C 99 % 1020,0 hPa 0,0 l/m 0 min 0 min 0,0 UV-I 165 W/m 0,0 km/h (0 Bft)
12.10.2013 10:58 5,4 C 5,0 C 99 % 1019,8 hPa 0,0 l/m 0 min 0 min 0,0 UV-I 165 W/m 0,0 km/h (0 Bft)
12.10.2013 11:00 5,4 C 5,0 C 99 % 1019,9 hPa 0,0 l/m 0 min 0 min 0,0 UV-I 163 W/m 0,0 km/h (0 Bft)
12.10.2013 11:02 5,3 C 5,0 C 99 % 1019,9 hPa 0,0 l/m 0 min 0 min 0,0 UV-I 171 W/m 0,0 km/h (0 Bft)
12.10.2013 11:06 5,6 C 5,6 C 99 % 1019,9 hPa 0,0 l/m 0 min 0 min 0,0 UV-I 214 W/m 0,0 km/h (0 Bft)
12.10.2013 11:08 5,8 C 5,6 C 99 % 1019,9 hPa 0,0 l/m 2 min 0 min 0,0 UV-I 241 W/m 2,6 km/h (1 Bft)
12.10.2013 11:10 5,9 C 5,6 C 99 % 1020,0 hPa 0,0 l/m 2 min 0 min 0,0 UV-I 246 W/m 0,0 km/h (0 Bft)
12.10.2013 11:12 5,9 C 5,6 C 99 % 1019,9 hPa 0,0 l/m 0 min 0 min 0,0 UV-I 186 W/m 0,0 km/h (0 Bft)
12.10.2013 11:14 5,9 C 5,6 C 99 % 1020,0 hPa 0,0 l/m 0 min 0 min 0,0 UV-I 227 W/m 0,0 km/h (0 Bft)
12.10.2013 11:16 6,1 C 5,6 C 99 % 1020,1 hPa 0,0 l/m 0 min 0 min 0,0 UV-I 197 W/m 0,0 km/h (0 Bft)
12.10.2013 11:18 6,3 C 5,6 C 99 % 1020,1 hPa 0,0 l/m 0 min 0 min 0,0 UV-I 151 W/m 0,0 km/h (0 Bft)
12.10.2013 11:20 6,3 C 5,6 C 99 % 1020,0 hPa 0,0 l/m 0 min 0 min 0,0 UV-I 130 W/m 2,6 km/h (1 Bft)
12.10.2013 11:22 6,2 C 5,6 C 99 % 1020,0 hPa 0,0 l/m 0 min 0 min 0,0 UV-I 118 W/m 0,0 km/h (0 Bft)
12.10.2013 11:24 6,1 C 5,6 C 99 % 1019,9 hPa 0,0 l/m 0 min 0 min 0,0 UV-I 128 W/m 0,0 km/h (0 Bft)
12.10.2013 11:26 6,0 C 5,0 C 99 % 1019,9 hPa 0,0 l/m 0 min 0 min 0,0 UV-I 139 W/m 0,0 km/h (0 Bft)
12.10.2013 11:28 6,0 C 5,6 C 99 % 1019,8 hPa 0,0 l/m 0 min 0 min 0,0 UV-I 158 W/m 0,0 km/h (0 Bft)
12.10.2013 11:30 6,0 C 5,6 C 99 % 1019,8 hPa 0,0 l/m 0 min 0 min 0,0 UV-I 192 W/m 0,0 km/h (0 Bft)
12.10.2013 11:32 6,1 C 5,6 C 99 % 1019,8 hPa 0,0 l/m 0 min 0 min 0,0 UV-I 209 W/m 0,0 km/h (0 Bft)
12.10.2013 11:34 6,2 C 6,1 C 99 % 1019,7 hPa 0,0 l/m 0 min 0 min 0,0 UV-I 232 W/m 0,0 km/h (0 Bft)
12.10.2013 11:36 6,3 C 6,1 C 99 % 1019,7 hPa 0,0 l/m 2 min 0 min 0,0 UV-I 258 W/m 0,0 km/h (0 Bft)
12.10.2013 11:38 6,4 C 6,1 C 99 % 1019,7 hPa 0,0 l/m 2 min 0 min 0,0 UV-I 260 W/m 0,0 km/h (0 Bft)
12.10.2013 11:40 6,6 C 6,1 C 99 % 1019,6 hPa 0,0 l/m 2 min 0 min 0,5 UV-I 306 W/m 2,6 km/h (1 Bft)
12.10.2013 11:42 6,6 C 6,1 C 99 % 1019,5 hPa 0,0 l/m 2 min 0 min 0,5 UV-I 322 W/m 0,0 km/h (0 Bft)
12.10.2013 11:44 6,6 C 6,1 C 99 % 1019,5 hPa 0,0 l/m 2 min 0 min 0,5 UV-I 315 W/m 0,0 km/h (0 Bft)
12.10.2013 11:46 6,8 C 6,7 C 99 % 1019,6 hPa 0,0 l/m 2 min 0 min 0,7 UV-I 410 W/m 0,0 km/h (0 Bft)
12.10.2013 11:48 6,8 C 6,1 C 99 % 1019,5 hPa 0,0 l/m 2 min 0 min 0,6 UV-I 308 W/m 0,0 km/h (0 Bft)
12.10.2013 11:50 6,7 C 6,1 C 99 % 1019,6 hPa 0,0 l/m 2 min 0 min 0,7 UV-I 360 W/m 0,0 km/h (0 Bft)
12.10.2013 11:52 6,9 C 6,7 C 99 % 1019,5 hPa 0,0 l/m 2 min 0 min 0,7 UV-I 406 W/m 0,0 km/h (0 Bft)
12.10.2013 11:54 7,1 C 6,7 C 99 % 1019,5 hPa 0,0 l/m 2 min 0 min 0,8 UV-I 468 W/m 0,0 km/h (0 Bft)
12.10.2013 11:56 7,3 C 6,7 C 99 % 1019,5 hPa 0,0 l/m 2 min 0 min 0,8 UV-I 462 W/m 0,0 km/h (0 Bft)
12.10.2013 11:58 7,4 C 6,7 C 99 % 1019,5 hPa 0,0 l/m 2 min 0 min 0,7 UV-I 390 W/m 2,6 km/h (1 Bft)
12.10.2013 12:00 7,3 C 6,1 C 99 % 1019,4 hPa 0,0 l/m 0 min 0 min 0,0 UV-I 148 W/m 0,0 km/h (0 Bft)
12.10.2013 12:02 7,1 C 6,1 C 98 % 1019,5 hPa 0,0 l/m 0 min 0 min 0,0 UV-I 171 W/m 0,0 km/h (0 Bft)
12.10.2013 12:06 7,1 C 6,1 C 98 % 1019,6 hPa 0,0 l/m 2 min 0 min 0,8 UV-I 323 W/m 0,0 km/h (0 Bft)
12.10.2013 12:08 7,2 C 6,7 C 97 % 1019,5 hPa 0,0 l/m 2 min 0 min 1,0 UV-I 489 W/m 0,0 km/h (0 Bft)
12.10.2013 12:10 7,6 C 6,7 C 97 % 1019,5 hPa 0,0 l/m 2 min 0 min 1,0 UV-I 457 W/m 0,0 km/h (0 Bft)
12.10.2013 12:12 7,9 C 6,7 C 97 % 1019,6 hPa 0,0 l/m 2 min 0 min 0,9 UV-I 448 W/m 2,6 km/h (1 Bft)
12.10.2013 12:14 7,9 C 6,7 C 96 % 1019,5 hPa 0,0 l/m 2 min 0 min 1,0 UV-I 446 W/m 0,0 km/h (0 Bft)
12.10.2013 12:16 7,9 C 6,7 C 96 % 1019,5 hPa 0,0 l/m 2 min 0 min 1,0 UV-I 461 W/m 0,0 km/h (0 Bft)
12.10.2013 12:18 7,8 C 6,7 C 95 % 1019,5 hPa 0,0 l/m 2 min 0 min 1,0 UV-I 462 W/m 0,0 km/h (0 Bft)
12.10.2013 12:20 7,7 C 6,7 C 93 % 1019,4 hPa 0,0 l/m 2 min 0 min 1,0 UV-I 473 W/m 0,0 km/h (0 Bft)
12.10.2013 12:22 8,0 C 6,7 C 93 % 1019,4 hPa 0,0 l/m 2 min 0 min 1,0 UV-I 448 W/m 0,0 km/h (0 Bft)
12.10.2013 12:24 8,2 C 7,2 C 93 % 1019,4 hPa 0,0 l/m 2 min 0 min 1,0 UV-I 478 W/m 2,6 km/h (1 Bft)
12.10.2013 12:26 8,5 C 7,2 C 93 % 1019,5 hPa 0,0 l/m 2 min 0 min 0,9 UV-I 483 W/m 2,6 km/h (1 Bft)
12.10.2013 12:28 8,3 C 7,2 C 93 % 1019,5 hPa 0,0 l/m 2 min 0 min 0,9 UV-I 459 W/m 0,0 km/h (0 Bft)
12.10.2013 12:30 8,2 C 7,2 C 92 % 1019,5 hPa 0,0 l/m 2 min 0 min 0,8 UV-I 468 W/m 0,0 km/h (0 Bft)
12.10.2013 12:32 8,2 C 7,2 C 92 % 1019,5 hPa 0,0 l/m 2 min 0 min 0,7 UV-I 482 W/m 0,0 km/h (0 Bft)
12.10.2013 12:34 8,4 C 7,2 C 92 % 1019,5 hPa 0,0 l/m 2 min 0 min 0,7 UV-I 497 W/m 0,0 km/h (0 Bft)
12.10.2013 12:36 8,4 C 7,2 C 92 % 1019,4 hPa 0,0 l/m 2 min 0 min 0,7 UV-I 503 W/m 2,6 km/h (1 Bft)
12.10.2013 12:38 8,5 C 7,2 C 91 % 1019,4 hPa 0,0 l/m 2 min 0 min 0,6 UV-I 492 W/m 0,0 km/h (0 Bft)
12.10.2013 12:40 8,5 C 7,2 C 90 % 1019,5 hPa 0,0 l/m 2 min 0 min 0,7 UV-I 459 W/m 0,0 km/h (0 Bft)
12.10.2013 12:42 8,4 C 7,2 C 90 % 1019,5 hPa 0,0 l/m 2 min 0 min 0,7 UV-I 459 W/m 0,0 km/h (0 Bft)
12.10.2013 12:44 8,5 C 7,2 C 90 % 1019,5 hPa 0,0 l/m 2 min 0 min 0,6 UV-I 459 W/m 10,3 km/h (2 Bft)
12.10.2013 12:46 8,5 C 7,2 C 89 % 1019,6 hPa 0,0 l/m 2 min 0 min 0,6 UV-I 459 W/m 5,1 km/h (1 Bft)
12.10.2013 12:48 8,6 C 7,2 C 90 % 1019,5 hPa 0,0 l/m 2 min 0 min 0,6 UV-I 455 W/m 0,0 km/h (0 Bft)
12.10.2013 12:50 8,8 C 7,2 C 91 % 1019,4 hPa 0,0 l/m 2 min 0 min 0,6 UV-I 492 W/m 0,0 km/h (0 Bft)
12.10.2013 12:52 8,8 C 7,8 C 90 % 1019,3 hPa 0,0 l/m 2 min 0 min 0,6 UV-I 489 W/m 0,0 km/h (0 Bft)
12.10.2013 12:54 9,0 C 7,8 C 90 % 1019,3 hPa 0,0 l/m 2 min 0 min 0,6 UV-I 485 W/m 0,0 km/h (0 Bft)
12.10.2013 12:56 9,2 C 7,8 C 90 % 1019,3 hPa 0,0 l/m 2 min 0 min 0,6 UV-I 506 W/m 0,0 km/h (0 Bft)
12.10.2013 12:58 9,1 C 7,8 C 89 % 1019,3 hPa 0,0 l/m 2 min 0 min 0,6 UV-I 522 W/m 7,7 km/h (2 Bft)
12.10.2013 13:00 9,1 C 8,3 C 89 % 1019,2 hPa 0,0 l/m 2 min 0 min 0,7 UV-I 533 W/m 0,0 km/h (0 Bft)
12.10.2013 13:02 9,2 C 8,3 C 89 % 1019,2 hPa 0,0 l/m 2 min 0 min 0,5 UV-I 548 W/m 0,0 km/h (0 Bft)
12.10.2013 13:06 9,2 C 8,3 C 88 % 1019,1 hPa 0,0 l/m 2 min 0 min 0,6 UV-I 599 W/m 2,6 km/h (1 Bft)
12.10.2013 13:08 9,2 C 8,3 C 87 % 1019,1 hPa 0,0 l/m 2 min 0 min 0,6 UV-I 571 W/m 2,6 km/h (1 Bft)
12.10.2013 13:10 9,2 C 8,3 C 87 % 1019,0 hPa 0,0 l/m 2 min 0 min 0,8 UV-I 587 W/m 7,7 km/h (2 Bft)
12.10.2013 13:12 9,1 C 8,3 C 86 % 1019,0 hPa 0,0 l/m 2 min 0 min 0,7 UV-I 466 W/m 0,0 km/h (0 Bft)
12.10.2013 13:14 9,0 C 8,3 C 86 % 1019,0 hPa 0,0 l/m 2 min 0 min 0,6 UV-I 455 W/m 0,0 km/h (0 Bft)
12.10.2013 13:16 9,2 C 8,3 C 87 % 1019,0 hPa 0,0 l/m 0 min 0 min 0,6 UV-I 246 W/m 0,0 km/h (0 Bft)
12.10.2013 13:18 9,2 C 8,3 C 88 % 1019,0 hPa 0,0 l/m 0 min 0 min 0,6 UV-I 281 W/m 2,6 km/h (1 Bft)
12.10.2013 13:20 9,2 C 8,3 C 87 % 1019,0 hPa 0,0 l/m 2 min 0 min 0,7 UV-I 339 W/m 0,0 km/h (0 Bft)
12.10.2013 13:22 9,3 C 8,9 C 88 % 1019,0 hPa 0,0 l/m 2 min 0 min 0,7 UV-I 353 W/m 0,0 km/h (0 Bft)
12.10.2013 13:24 9,2 C 8,9 C 87 % 1018,9 hPa 0,0 l/m 2 min 0 min 0,8 UV-I 387 W/m 0,0 km/h (0 Bft)
12.10.2013 13:26 9,1 C 8,9 C 86 % 1018,9 hPa 0,0 l/m 2 min 0 min 0,8 UV-I 385 W/m 0,0 km/h (0 Bft)
12.10.2013 13:28 9,3 C 8,9 C 87 % 1018,8 hPa 0,0 l/m 2 min 0 min 0,7 UV-I 318 W/m 0,0 km/h (0 Bft)
12.10.2013 13:30 9,4 C 8,9 C 87 % 1018,7 hPa 0,0 l/m 2 min 0 min 0,7 UV-I 313 W/m 7,7 km/h (2 Bft)
12.10.2013 13:32 9,2 C 8,9 C 85 % 1018,6 hPa 0,0 l/m 0 min 0 min 0,7 UV-I 253 W/m 2,6 km/h (1 Bft)
12.10.2013 13:34 9,2 C 8,9 C 86 % 1018,6 hPa 0,0 l/m 0 min 0 min 0,7 UV-I 246 W/m 0,0 km/h (0 Bft)
12.10.2013 13:36 9,2 C 8,9 C 87 % 1018,6 hPa 0,0 l/m 2 min 0 min 0,9 UV-I 369 W/m 5,1 km/h (1 Bft)
12.10.2013 13:38 9,2 C 8,3 C 86 % 1018,6 hPa 0,0 l/m 2 min 0 min 1,1 UV-I 468 W/m 5,1 km/h (1 Bft)
12.10.2013 13:40 9,2 C 8,3 C 86 % 1018,5 hPa 0,0 l/m 2 min 0 min 0,9 UV-I 380 W/m 2,6 km/h (1 Bft)
12.10.2013 13:42 9,4 C 8,3 C 87 % 1018,5 hPa 0,0 l/m 2 min 0 min 0,8 UV-I 357 W/m 0,0 km/h (0 Bft)
12.10.2013 13:44 9,4 C 8,3 C 86 % 1018,4 hPa 0,0 l/m 2 min 0 min 0,9 UV-I 311 W/m 0,0 km/h (0 Bft)
12.10.2013 13:46 9,5 C 8,3 C 86 % 1018,4 hPa 0,0 l/m 2 min 0 min 0,8 UV-I 316 W/m 10,3 km/h (2 Bft)
12.10.2013 13:48 9,4 C 8,3 C 85 % 1018,4 hPa 0,0 l/m 2 min 0 min 0,8 UV-I 311 W/m 5,1 km/h (1 Bft)
12.10.2013 13:50 9,5 C 8,3 C 86 % 1018,3 hPa 0,0 l/m 2 min 0 min 0,8 UV-I 336 W/m 0,0 km/h (0 Bft)
12.10.2013 13:52 9,6 C 8,3 C 86 % 1018,3 hPa 0,0 l/m 0 min 0 min 0,7 UV-I 236 W/m 0,0 km/h (0 Bft)
12.10.2013 13:54 9,6 C 8,3 C 85 % 1018,3 hPa 0,0 l/m 2 min 0 min 0,8 UV-I 369 W/m 5,1 km/h (1 Bft)
12.10.2013 13:56 9,5 C 8,3 C 84 % 1018,2 hPa 0,0 l/m 2 min 0 min 0,7 UV-I 322 W/m 2,6 km/h (1 Bft)
12.10.2013 13:58 9,6 C 8,3 C 85 % 1018,3 hPa 0,0 l/m 0 min 0 min 0,6 UV-I 223 W/m 0,0 km/h (0 Bft)
12.10.2013 14:00 9,6 C 8,3 C 86 % 1018,3 hPa 0,0 l/m 0 min 0 min 0,7 UV-I 243 W/m 0,0 km/h (0 Bft)
12.10.2013 14:02 9,6 C 8,3 C 86 % 1018,3 hPa 0,0 l/m 2 min 0 min 0,7 UV-I 330 W/m 0,0 km/h (0 Bft)
12.10.2013 14:06 9,8 C 8,3 C 87 % 1018,2 hPa 0,0 l/m 2 min 0 min 0,7 UV-I 311 W/m 0,0 km/h (0 Bft)
12.10.2013 14:08 9,9 C 8,3 C 86 % 1018,2 hPa 0,0 l/m 0 min 0 min 0,6 UV-I 167 W/m 2,6 km/h (1 Bft)
12.10.2013 14:10 9,9 C 8,3 C 86 % 1018,0 hPa 0,0 l/m 0 min 0 min 0,6 UV-I 192 W/m 2,6 km/h (1 Bft)
12.10.2013 14:12 9,8 C 8,3 C 85 % 1018,1 hPa 0,0 l/m 0 min 0 min 0,6 UV-I 218 W/m 0,0 km/h (0 Bft)
12.10.2013 14:14 9,8 C 8,3 C 86 % 1018,0 hPa 0,0 l/m 2 min 0 min 0,9 UV-I 309 W/m 0,0 km/h (0 Bft)
12.10.2013 14:16 9,8 C 8,9 C 85 % 1017,9 hPa 0,0 l/m 2 min 0 min 0,9 UV-I 439 W/m 0,0 km/h (0 Bft)
12.10.2013 14:18 9,8 C 8,9 C 84 % 1017,8 hPa 0,0 l/m 2 min 0 min 0,8 UV-I 306 W/m 0,0 km/h (0 Bft)
12.10.2013 14:20 9,8 C 8,9 C 84 % 1017,8 hPa 0,0 l/m 2 min 0 min 0,9 UV-I 367 W/m 0,0 km/h (0 Bft)
12.10.2013 14:22 9,9 C 8,9 C 84 % 1017,8 hPa 0,0 l/m 2 min 0 min 0,8 UV-I 424 W/m 0,0 km/h (0 Bft)
12.10.2013 14:24 10,1 C 8,9 C 85 % 1017,8 hPa 0,0 l/m 2 min 0 min 0,8 UV-I 439 W/m 0,0 km/h (0 Bft)
12.10.2013 14:26 10,2 C 8,9 C 84 % 1017,8 hPa 0,0 l/m 2 min 0 min 0,7 UV-I 432 W/m 5,1 km/h (1 Bft)
12.10.2013 14:28 10,3 C 8,9 C 84 % 1017,7 hPa 0,0 l/m 0 min 0 min 0,8 UV-I 262 W/m 7,7 km/h (2 Bft)
12.10.2013 14:30 10,3 C 8,9 C 83 % 1017,7 hPa 0,0 l/m 2 min 0 min 0,8 UV-I 396 W/m 0,0 km/h (0 Bft)
12.10.2013 14:32 10,4 C 8,9 C 84 % 1017,7 hPa 0,0 l/m 2 min 0 min 0,8 UV-I 355 W/m 0,0 km/h (0 Bft)
12.10.2013 14:34 10,6 C 9,4 C 83 % 1017,6 hPa 0,0 l/m 2 min 0 min 0,8 UV-I 404 W/m 0,0 km/h (0 Bft)
12.10.2013 14:36 10,7 C 9,4 C 83 % 1017,6 hPa 0,0 l/m 2 min 0 min 0,9 UV-I 445 W/m 0,0 km/h (0 Bft)
12.10.2013 14:38 10,8 C 9,4 C 83 % 1017,5 hPa 0,0 l/m 0 min 0 min 0,7 UV-I 244 W/m 0,0 km/h (0 Bft)
12.10.2013 14:40 10,8 C 9,4 C 82 % 1017,5 hPa 0,0 l/m 0 min 0 min 0,7 UV-I 244 W/m 0,0 km/h (0 Bft)
12.10.2013 14:42 10,7 C 9,4 C 82 % 1017,5 hPa 0,0 l/m 0 min 0 min 0,7 UV-I 250 W/m 0,0 km/h (0 Bft)
12.10.2013 14:44 10,5 C 9,4 C 81 % 1017,6 hPa 0,0 l/m 0 min 0 min 0,5 UV-I 225 W/m 12,9 km/h (3 Bft)
12.10.2013 14:46 10,4 C 9,4 C 82 % 1017,5 hPa 0,0 l/m 0 min 0 min 0,0 UV-I 211 W/m 10,3 km/h (2 Bft)
12.10.2013 14:48 10,4 C 9,4 C 82 % 1017,7 hPa 0,0 l/m 0 min 0 min 0,0 UV-I 204 W/m 7,7 km/h (2 Bft)
12.10.2013 14:50 10,5 C 9,4 C 82 % 1017,7 hPa 0,0 l/m 0 min 0 min 0,0 UV-I 183 W/m 7,7 km/h (2 Bft)
12.10.2013 14:52 10,5 C 9,4 C 82 % 1017,6 hPa 0,0 l/m 0 min 0 min 0,0 UV-I 165 W/m 10,3 km/h (2 Bft)
12.10.2013 14:54 10,4 C 9,4 C 82 % 1017,6 hPa 0,0 l/m 0 min 0 min 0,0 UV-I 160 W/m 0,0 km/h (0 Bft)
12.10.2013 14:56 10,4 C 9,4 C 82 % 1017,6 hPa 0,0 l/m 0 min 0 min 0,0 UV-I 172 W/m 0,0 km/h (0 Bft)
12.10.2013 14:58 10,4 C 9,4 C 83 % 1017,6 hPa 0,0 l/m 0 min 0 min 0,0 UV-I 172 W/m 0,0 km/h (0 Bft)
12.10.2013 15:00 10,4 C 9,4 C 82 % 1017,5 hPa 0,0 l/m 0 min 0 min 0,0 UV-I 160 W/m 0,0 km/h (0 Bft)
12.10.2013 15:02 10,4 C 9,4 C 83 % 1017,4 hPa 0,0 l/m 0 min 0 min 0,0 UV-I 158 W/m 7,7 km/h (2 Bft)
12.10.2013 15:06 10,4 C 10,0 C 82 % 1017,3 hPa 0,0 l/m 0 min 0 min 0,0 UV-I 190 W/m 0,0 km/h (0 Bft)
12.10.2013 15:08 10,4 C 10,0 C 83 % 1017,2 hPa 0,0 l/m 0 min 0 min 0,0 UV-I 202 W/m 0,0 km/h (0 Bft)
12.10.2013 15:10 10,4 C 10,0 C 82 % 1017,2 hPa 0,0 l/m 0 min 0 min 0,0 UV-I 209 W/m 0,0 km/h (0 Bft)
12.10.2013 15:12 10,4 C 10,0 C 82 % 1017,2 hPa 0,0 l/m 0 min 0 min 0,0 UV-I 207 W/m 2,6 km/h (1 Bft)
12.10.2013 15:14 10,4 C 10,0 C 82 % 1017,2 hPa 0,0 l/m 0 min 0 min 0,0 UV-I 199 W/m 0,0 km/h (0 Bft)
12.10.2013 15:16 10,5 C 10,0 C 82 % 1017,2 hPa 0,0 l/m 0 min 0 min 0,0 UV-I 193 W/m 0,0 km/h (0 Bft)
12.10.2013 15:18 10,5 C 10,0 C 82 % 1017,3 hPa 0,0 l/m 0 min 0 min 0,0 UV-I 176 W/m 0,0 km/h (0 Bft)
12.10.2013 15:20 10,6 C 10,0 C 82 % 1017,3 hPa 0,0 l/m 0 min 0 min 0,0 UV-I 174 W/m 2,6 km/h (1 Bft)
12.10.2013 15:22 10,6 C 10,0 C 83 % 1017,3 hPa 0,0 l/m 0 min 0 min 0,0 UV-I 172 W/m 2,6 km/h (1 Bft)
12.10.2013 15:24 10,7 C 10,0 C 83 % 1017,3 hPa 0,0 l/m 0 min 0 min 0,0 UV-I 165 W/m 0,0 km/h (0 Bft)
12.10.2013 15:26 10,7 C 10,0 C 83 % 1017,3 hPa 0,0 l/m 0 min 0 min 0,0 UV-I 160 W/m 0,0 km/h (0 Bft)
12.10.2013 15:28 10,7 C 10,0 C 83 % 1017,2 hPa 0,0 l/m 0 min 0 min 0,0 UV-I 149 W/m 0,0 km/h (0 Bft)
12.10.2013 15:30 10,6 C 10,0 C 83 % 1017,3 hPa 0,0 l/m 0 min 0 min 0,0 UV-I 121 W/m 0,0 km/h (0 Bft)
12.10.2013 15:32 10,6 C 10,0 C 83 % 1017,3 hPa 0,0 l/m 0 min 0 min 0,0 UV-I 100 W/m 0,0 km/h (0 Bft)
12.10.2013 15:34 10,6 C 10,0 C 83 % 1017,4 hPa 0,0 l/m 0 min 0 min 0,0 UV-I 91 W/m 0,0 km/h (0 Bft)
12.10.2013 15:36 10,6 C 10,0 C 84 % 1017,3 hPa 0,0 l/m 0 min 0 min 0,0 UV-I 95 W/m 0,0 km/h (0 Bft)
12.10.2013 15:38 10,6 C 10,0 C 84 % 1017,3 hPa 0,0 l/m 0 min 0 min 0,0 UV-I 104 W/m 0,0 km/h (0 Bft)
12.10.2013 15:40 10,6 C 10,0 C 84 % 1017,2 hPa 0,0 l/m 0 min 0 min 0,0 UV-I 109 W/m 0,0 km/h (0 Bft)
12.10.2013 15:42 10,6 C 10,0 C 85 % 1017,2 hPa 0,0 l/m 0 min 0 min 0,0 UV-I 111 W/m 0,0 km/h (0 Bft)
12.10.2013 15:44 10,6 C 10,0 C 85 % 1017,3 hPa 0,0 l/m 0 min 0 min 0,0 UV-I 104 W/m 0,0 km/h (0 Bft)
12.10.2013 15:46 10,6 C 10,0 C 83 % 1017,3 hPa 0,0 l/m 0 min 0 min 0,0 UV-I 97 W/m 7,7 km/h (2 Bft)
12.10.2013 15:48 10,6 C 10,0 C 83 % 1017,3 hPa 0,0 l/m 0 min 0 min 0,0 UV-I 88 W/m 0,0 km/h (0 Bft)
12.10.2013 15:50 10,5 C 9,4 C 83 % 1017,3 hPa 0,0 l/m 0 min 0 min 0,0 UV-I 83 W/m 0,0 km/h (0 Bft)
12.10.2013 15:52 10,5 C 9,4 C 83 % 1017,3 hPa 0,0 l/m 0 min 0 min 0,0 UV-I 81 W/m 0,0 km/h (0 Bft)
12.10.2013 15:54 10,5 C 9,4 C 83 % 1017,2 hPa 0,0 l/m 0 min 0 min 0,0 UV-I 79 W/m 2,6 km/h (1 Bft)
12.10.2013 15:56 10,5 C 9,4 C 83 % 1017,2 hPa 0,0 l/m 0 min 0 min 0,0 UV-I 77 W/m 2,6 km/h (1 Bft)
12.10.2013 15:58 10,4 C 9,4 C 82 % 1017,2 hPa 0,0 l/m 0 min 0 min 0,0 UV-I 79 W/m 0,0 km/h (0 Bft)
12.10.2013 16:00 10,5 C 9,4 C 81 % 1017,1 hPa 0,0 l/m 0 min 0 min 0,0 UV-I 81 W/m 0,0 km/h (0 Bft)
12.10.2013 16:02 10,5 C 9,4 C 82 % 1017,1 hPa 0,0 l/m 0 min 0 min 0,0 UV-I 79 W/m 0,0 km/h (0 Bft)
12.10.2013 16:06 10,4 C 9,4 C 83 % 1017,0 hPa 0,0 l/m 0 min 0 min 0,0 UV-I 72 W/m 5,1 km/h (1 Bft)
12.10.2013 16:08 10,4 C 9,4 C 83 % 1017,0 hPa 0,0 l/m 0 min 0 min 0,0 UV-I 70 W/m 10,3 km/h (2 Bft)
12.10.2013 16:10 10,3 C 9,4 C 84 % 1017,0 hPa 0,0 l/m 0 min 0 min 0,0 UV-I 67 W/m 0,0 km/h (0 Bft)
12.10.2013 16:12 10,3 C 9,4 C 84 % 1017,1 hPa 0,0 l/m 0 min 0 min 0,0 UV-I 58 W/m 10,3 km/h (2 Bft)
12.10.2013 16:14 10,2 C 9,4 C 84 % 1017,0 hPa 0,0 l/m 0 min 0 min 0,0 UV-I 56 W/m 2,6 km/h (1 Bft)
12.10.2013 16:16 10,2 C 9,4 C 84 % 1016,9 hPa 0,0 l/m 0 min 0 min 0,0 UV-I 63 W/m 0,0 km/h (0 Bft)
12.10.2013 16:18 10,2 C 9,4 C 84 % 1016,8 hPa 0,0 l/m 0 min 0 min 0,0 UV-I 72 W/m 0,0 km/h (0 Bft)
12.10.2013 16:20 10,1 C 9,4 C 84 % 1016,7 hPa 0,0 l/m 0 min 0 min 0,0 UV-I 70 W/m 0,0 km/h (0 Bft)
12.10.2013 16:22 10,1 C 9,4 C 84 % 1016,6 hPa 0,0 l/m 0 min 0 min 0,0 UV-I 60 W/m 0,0 km/h (0 Bft)
12.10.2013 16:24 10,1 C 8,9 C 84 % 1016,6 hPa 0,0 l/m 0 min 0 min 0,0 UV-I 54 W/m 2,6 km/h (1 Bft)
12.10.2013 16:26 10,1 C 8,9 C 83 % 1016,6 hPa 0,0 l/m 0 min 0 min 0,0 UV-I 54 W/m 7,7 km/h (2 Bft)
12.10.2013 16:28 10,1 C 8,9 C 83 % 1016,6 hPa 0,0 l/m 0 min 0 min 0,0 UV-I 56 W/m 0,0 km/h (0 Bft)
12.10.2013 16:30 10,1 C 8,9 C 84 % 1016,5 hPa 0,0 l/m 0 min 0 min 0,0 UV-I 56 W/m 0,0 km/h (0 Bft)
12.10.2013 16:32 10,1 C 8,9 C 84 % 1016,4 hPa 0,0 l/m 0 min 0 min 0,0 UV-I 56 W/m 0,0 km/h (0 Bft)
12.10.2013 16:34 10,1 C 8,9 C 84 % 1016,4 hPa 0,0 l/m 0 min 0 min 0,0 UV-I 53 W/m 0,0 km/h (0 Bft)
12.10.2013 16:36 10,0 C 8,9 C 84 % 1016,3 hPa 0,0 l/m 0 min 0 min 0,0 UV-I 49 W/m 0,0 km/h (0 Bft)
12.10.2013 16:38 10,0 C 8,9 C 85 % 1016,2 hPa 0,0 l/m 0 min 0 min 0,0 UV-I 46 W/m 0,0 km/h (0 Bft)
12.10.2013 16:40 10,0 C 8,9 C 85 % 1015,9 hPa 0,0 l/m 0 min 0 min 0,0 UV-I 44 W/m 0,0 km/h (0 Bft)
12.10.2013 16:42 9,9 C 8,9 C 86 % 1015,6 hPa 0,0 l/m 0 min 0 min 0,0 UV-I 46 W/m 5,1 km/h (1 Bft)
12.10.2013 16:44 9,8 C 8,9 C 86 % 1015,5 hPa 0,0 l/m 0 min 0 min 0,0 UV-I 46 W/m 10,3 km/h (2 Bft)
12.10.2013 16:46 9,8 C 8,9 C 86 % 1015,6 hPa 0,0 l/m 0 min 0 min 0,0 UV-I 47 W/m 0,0 km/h (0 Bft)
12.10.2013 16:48 9,8 C 8,9 C 86 % 1015,7 hPa 0,0 l/m 0 min 0 min 0,0 UV-I 49 W/m 0,0 km/h (0 Bft)
12.10.2013 16:50 9,7 C 8,9 C 87 % 1015,8 hPa 0,0 l/m 0 min 0 min 0,0 UV-I 49 W/m 0,0 km/h (0 Bft)
12.10.2013 16:52 9,7 C 8,9 C 87 % 1016,0 hPa 0,0 l/m 0 min 0 min 0,0 UV-I 49 W/m 0,0 km/h (0 Bft)
12.10.2013 16:54 9,7 C 8,9 C 87 % 1016,1 hPa 0,0 l/m 0 min 0 min 0,0 UV-I 47 W/m 0,0 km/h (0 Bft)
12.10.2013 16:56 9,7 C 8,9 C 87 % 1016,1 hPa 0,0 l/m 0 min 0 min 0,0 UV-I 47 W/m 5,1 km/h (1 Bft)
12.10.2013 16:58 9,7 C 8,9 C 87 % 1016,1 hPa 0,0 l/m 0 min 0 min 0,0 UV-I 51 W/m 2,6 km/h (1 Bft)
12.10.2013 17:00 9,7 C 8,9 C 87 % 1016,1 hPa 0,0 l/m 0 min 0 min 0,0 UV-I 53 W/m 0,0 km/h (0 Bft)
12.10.2013 17:02 9,6 C 8,9 C 88 % 1016,0 hPa 0,0 l/m 0 min 0 min 0,0 UV-I 53 W/m 0,0 km/h (0 Bft)
12.10.2013 17:06 9,6 C 8,9 C 88 % 1016,2 hPa 0,0 l/m 0 min 0 min 0,0 UV-I 23 W/m 0,0 km/h (0 Bft)
12.10.2013 17:08 9,6 C 8,3 C 89 % 1016,3 hPa 0,0 l/m 0 min 0 min 0,0 UV-I 16 W/m 0,0 km/h (0 Bft)
12.10.2013 17:10 9,6 C 8,3 C 89 % 1016,4 hPa 0,0 l/m 0 min 0 min 0,0 UV-I 14 W/m 0,0 km/h (0 Bft)
12.10.2013 17:12 9,5 C 8,3 C 89 % 1016,4 hPa 0,0 l/m 0 min 0 min 0,0 UV-I 16 W/m 0,0 km/h (0 Bft)
12.10.2013 17:14 9,5 C 8,3 C 89 % 1016,4 hPa 0,0 l/m 0 min 0 min 0,0 UV-I 19 W/m 2,6 km/h (1 Bft)
12.10.2013 17:16 9,4 C 8,3 C 89 % 1016,4 hPa 0,0 l/m 0 min 0 min 0,0 UV-I 21 W/m 0,0 km/h (0 Bft)
12.10.2013 17:18 9,4 C 8,3 C 89 % 1016,3 hPa 0,0 l/m 0 min 0 min 0,0 UV-I 21 W/m 0,0 km/h (0 Bft)
12.10.2013 17:20 9,4 C 8,3 C 89 % 1016,3 hPa 0,0 l/m 0 min 0 min 0,0 UV-I 21 W/m 0,0 km/h (0 Bft)
12.10.2013 17:22 9,4 C 8,3 C 89 % 1016,3 hPa 0,0 l/m 0 min 0 min 0,0 UV-I 23 W/m 0,0 km/h (0 Bft)
12.10.2013 17:24 9,4 C 8,3 C 90 % 1016,3 hPa 0,0 l/m 0 min 0 min 0,0 UV-I 23 W/m 0,0 km/h (0 Bft)
12.10.2013 17:26 9,3 C 8,3 C 90 % 1016,3 hPa 0,0 l/m 0 min 0 min 0,0 UV-I 19 W/m 2,6 km/h (1 Bft)
12.10.2013 17:28 9,3 C 8,3 C 89 % 1016,3 hPa 0,0 l/m 0 min 0 min 0,0 UV-I 14 W/m 0,0 km/h (0 Bft)
12.10.2013 17:30 9,3 C 8,3 C 89 % 1016,3 hPa 0,0 l/m 0 min 0 min 0,0 UV-I 12 W/m 0,0 km/h (0 Bft)
12.10.2013 17:32 9,3 C 8,3 C 90 % 1016,4 hPa 0,0 l/m 0 min 0 min 0,0 UV-I 12 W/m 0,0 km/h (0 Bft)
12.10.2013 17:34 9,3 C 8,3 C 89 % 1016,3 hPa 0,0 l/m 0 min 0 min 0,0 UV-I 11 W/m 0,0 km/h (0 Bft)
12.10.2013 17:36 9,3 C 8,3 C 89 % 1016,3 hPa 0,0 l/m 0 min 0 min 0,0 UV-I 11 W/m 0,0 km/h (0 Bft)
12.10.2013 17:38 9,2 C 8,3 C 89 % 1016,2 hPa 0,0 l/m 0 min 0 min 0,0 UV-I 12 W/m 7,7 km/h (2 Bft)
12.10.2013 17:40 9,2 C 8,3 C 89 % 1016,2 hPa 0,0 l/m 0 min 0 min 0,0 UV-I 14 W/m 10,3 km/h (2 Bft)
12.10.2013 17:42 9,2 C 8,3 C 89 % 1016,2 hPa 0,0 l/m 0 min 0 min 0,0 UV-I 18 W/m 7,7 km/h (2 Bft)
12.10.2013 17:44 9,2 C 8,3 C 89 % 1016,2 hPa 0,0 l/m 0 min 0 min 0,0 UV-I 16 W/m 0,0 km/h (0 Bft)
12.10.2013 17:46 9,2 C 8,3 C 92 % 1016,2 hPa 0,0 l/m 0 min 0 min 0,0 UV-I 14 W/m 0,0 km/h (0 Bft)
12.10.2013 17:48 9,2 C 7,8 C 89 % 1016,2 hPa 0,0 l/m 0 min 0 min 0,0 UV-I 14 W/m 0,0 km/h (0 Bft)
12.10.2013 17:50 9,1 C 7,8 C 89 % 1016,2 hPa 0,0 l/m 0 min 0 min 0,0 UV-I 16 W/m 10,3 km/h (2 Bft)
12.10.2013 17:52 9,1 C 7,8 C 88 % 1016,2 hPa 0,0 l/m 0 min 0 min 0,0 UV-I 18 W/m 5,1 km/h (1 Bft)
12.10.2013 17:54 9,1 C 7,8 C 88 % 1016,2 hPa 0,0 l/m 0 min 0 min 0,0 UV-I 18 W/m 2,6 km/h (1 Bft)
12.10.2013 17:56 9,1 C 7,8 C 88 % 1016,2 hPa 0,0 l/m 0 min 0 min 0,0 UV-I 14 W/m 7,7 km/h (2 Bft)
12.10.2013 17:58 9,0 C 7,8 C 88 % 1016,3 hPa 0,0 l/m 0 min 0 min 0,0 UV-I 14 W/m 10,3 km/h (2 Bft)
12.10.2013 18:00 9,0 C 7,8 C 89 % 1016,3 hPa 0,0 l/m 0 min 0 min 0,0 UV-I 14 W/m 2,6 km/h (1 Bft)
12.10.2013 18:02 9,0 C 7,8 C 89 % 1016,2 hPa 0,0 l/m 0 min 0 min 0,0 UV-I 14 W/m 5,1 km/h (1 Bft)
12.10.2013 18:06 8,9 C 7,8 C 89 % 1016,3 hPa 0,0 l/m 0 min 0 min 0,0 UV-I 12 W/m 0,0 km/h (0 Bft)
12.10.2013 18:08 8,9 C 7,8 C 89 % 1016,3 hPa 0,0 l/m 0 min 0 min 0,0 UV-I 11 W/m 0,0 km/h (0 Bft)
12.10.2013 18:10 8,9 C 7,8 C 89 % 1016,3 hPa 0,0 l/m 0 min 0 min 0,0 UV-I 11 W/m 0,0 km/h (0 Bft)
12.10.2013 18:12 8,9 C 7,8 C 89 % 1016,3 hPa 0,0 l/m 0 min 0 min 0,0 UV-I 9 W/m 2,6 km/h (1 Bft)
12.10.2013 18:14 8,9 C 7,8 C 89 % 1016,3 hPa 0,0 l/m 0 min 0 min 0,0 UV-I 9 W/m 2,6 km/h (1 Bft)
12.10.2013 18:16 8,8 C 7,8 C 89 % 1016,3 hPa 0,0 l/m 0 min 0 min 0,0 UV-I 9 W/m 0,0 km/h (0 Bft)
12.10.2013 18:18 8,8 C 7,8 C 89 % 1016,3 hPa 0,0 l/m 0 min 0 min 0,0 UV-I 9 W/m 7,7 km/h (2 Bft)
12.10.2013 18:20 8,8 C 7,8 C 89 % 1016,3 hPa 0,0 l/m 0 min 0 min 0,0 UV-I 7 W/m 0,0 km/h (0 Bft)
12.10.2013 18:22 8,7 C 7,8 C 89 % 1016,2 hPa 0,0 l/m 0 min 0 min 0,0 UV-I 7 W/m 7,7 km/h (2 Bft)
12.10.2013 18:24 8,7 C 7,8 C 89 % 1016,2 hPa 0,0 l/m 0 min 0 min 0,0 UV-I 7 W/m 10,3 km/h (2 Bft)
12.10.2013 18:26 8,7 C 7,8 C 89 % 1016,2 hPa 0,0 l/m 0 min 0 min 0,0 UV-I 5 W/m 2,6 km/h (1 Bft)
12.10.2013 18:28 8,7 C 7,8 C 89 % 1016,2 hPa 0,0 l/m 0 min 0 min 0,0 UV-I 5 W/m 5,1 km/h (1 Bft)
12.10.2013 18:30 8,7 C 7,8 C 89 % 1016,2 hPa 0,0 l/m 0 min 0 min 0,0 UV-I 5 W/m 7,7 km/h (2 Bft)
12.10.2013 18:32 8,7 C 7,8 C 89 % 1016,2 hPa 0,0 l/m 0 min 0 min 0,0 UV-I 0 W/m 0,0 km/h (0 Bft)
12.10.2013 18:34 8,7 C 7,8 C 89 % 1016,2 hPa 0,0 l/m 0 min 0 min 0,0 UV-I 0 W/m 0,0 km/h (0 Bft)
12.10.2013 18:36 8,6 C 7,2 C 89 % 1016,2 hPa 0,0 l/m 0 min 0 min 0,0 UV-I 0 W/m 0,0 km/h (0 Bft)
12.10.2013 18:38 8,6 C 7,2 C 89 % 1016,1 hPa 0,0 l/m 0 min 0 min 0,0 UV-I 0 W/m 0,0 km/h (0 Bft)
12.10.2013 18:40 8,6 C 7,2 C 89 % 1016,1 hPa 0,0 l/m 0 min 0 min 0,0 UV-I 0 W/m 0,0 km/h (0 Bft)
12.10.2013 18:42 8,5 C 7,2 C 89 % 1016,1 hPa 0,0 l/m 0 min 0 min 0,0 UV-I 0 W/m 0,0 km/h (0 Bft)
12.10.2013 18:44 8,5 C 7,2 C 89 % 1016,1 hPa 0,0 l/m 0 min 0 min 0,0 UV-I 0 W/m 0,0 km/h (0 Bft)
12.10.2013 18:46 8,4 C 7,2 C 89 % 1016,0 hPa 0,0 l/m 0 min 0 min 0,0 UV-I 0 W/m 0,0 km/h (0 Bft)
12.10.2013 18:48 8,4 C 7,2 C 90 % 1016,0 hPa 0,0 l/m 0 min 0 min 0,0 UV-I 0 W/m 0,0 km/h (0 Bft)
12.10.2013 18:50 8,4 C 7,2 C 90 % 1016,0 hPa 0,0 l/m 0 min 0 min 0,0 UV-I 0 W/m 0,0 km/h (0 Bft)
12.10.2013 18:52 8,3 C 7,2 C 90 % 1016,0 hPa 0,0 l/m 0 min 0 min 0,0 UV-I 0 W/m 0,0 km/h (0 Bft)
12.10.2013 18:54 8,3 C 7,2 C 90 % 1016,1 hPa 0,0 l/m 0 min 0 min 0,0 UV-I 0 W/m 0,0 km/h (0 Bft)
12.10.2013 18:56 8,3 C 7,2 C 90 % 1016,0 hPa 0,0 l/m 0 min 0 min 0,0 UV-I 0 W/m 0,0 km/h (0 Bft)
12.10.2013 18:58 8,3 C 7,2 C 90 % 1016,1 hPa 0,0 l/m 0 min 0 min 0,0 UV-I 0 W/m 0,0 km/h (0 Bft)
12.10.2013 19:00 8,3 C 7,2 C 91 % 1015,9 hPa 0,0 l/m 0 min 0 min 0,0 UV-I 0 W/m 0,0 km/h (0 Bft)
12.10.2013 19:02 8,2 C 6,7 C 91 % 1016,0 hPa 0,0 l/m 0 min 0 min 0,0 UV-I 0 W/m 0,0 km/h (0 Bft)
12.10.2013 19:06 8,2 C 6,7 C 91 % 1016,1 hPa 0,0 l/m 0 min 0 min 0,0 UV-I 0 W/m 0,0 km/h (0 Bft)
12.10.2013 19:08 8,2 C 6,7 C 91 % 1016,0 hPa 0,0 l/m 0 min 0 min 0,0 UV-I 0 W/m 0,0 km/h (0 Bft)
12.10.2013 19:10 8,2 C 6,7 C 91 % 1016,0 hPa 0,0 l/m 0 min 0 min 0,0 UV-I 0 W/m 0,0 km/h (0 Bft)
12.10.2013 19:12 8,2 C 6,7 C 91 % 1015,9 hPa 0,0 l/m 0 min 0 min 0,0 UV-I 0 W/m 0,0 km/h (0 Bft)
12.10.2013 19:14 8,2 C 6,7 C 91 % 1016,0 hPa 0,0 l/m 0 min 0 min 0,0 UV-I 0 W/m 0,0 km/h (0 Bft)
12.10.2013 19:16 8,1 C 6,7 C 92 % 1016,0 hPa 0,0 l/m 0 min 0 min 0,0 UV-I 0 W/m 0,0 km/h (0 Bft)
12.10.2013 19:18 8,1 C 6,7 C 92 % 1016,0 hPa 0,0 l/m 0 min 0 min 0,0 UV-I 0 W/m 0,0 km/h (0 Bft)
12.10.2013 19:20 8,1 C 6,7 C 92 % 1015,9 hPa 0,0 l/m 0 min 0 min 0,0 UV-I 0 W/m 0,0 km/h (0 Bft)
12.10.2013 19:22 8,1 C 6,7 C 92 % 1016,0 hPa 0,0 l/m 0 min 0 min 0,0 UV-I 0 W/m 0,0 km/h (0 Bft)
12.10.2013 19:24 8,1 C 6,7 C 92 % 1015,9 hPa 0,0 l/m 0 min 0 min 0,0 UV-I 0 W/m 0,0 km/h (0 Bft)
12.10.2013 19:26 8,0 C 6,7 C 93 % 1016,0 hPa 0,0 l/m 0 min 0 min 0,0 UV-I 0 W/m 0,0 km/h (0 Bft)
12.10.2013 19:28 7,9 C 6,7 C 93 % 1016,0 hPa 0,0 l/m 0 min 0 min 0,0 UV-I 0 W/m 0,0 km/h (0 Bft)
12.10.2013 19:30 7,9 C 6,7 C 93 % 1016,0 hPa 0,0 l/m 0 min 2 min 0,0 UV-I 0 W/m 0,0 km/h (0 Bft)
12.10.2013 19:32 7,9 C 6,7 C 93 % 1016,1 hPa 0,0 l/m 0 min 0 min 0,0 UV-I 0 W/m 0,0 km/h (0 Bft)
12.10.2013 19:34 7,9 C 6,7 C 93 % 1016,0 hPa 0,0 l/m 0 min 0 min 0,0 UV-I 0 W/m 0,0 km/h (0 Bft)
12.10.2013 19:36 7,9 C 6,7 C 93 % 1015,9 hPa 0,0 l/m 0 min 0 min 0,0 UV-I 0 W/m 0,0 km/h (0 Bft)
12.10.2013 19:38 7,9 C 6,7 C 93 % 1015,8 hPa 0,0 l/m 0 min 0 min 0,0 UV-I 0 W/m 0,0 km/h (0 Bft)
12.10.2013 19:40 7,9 C 6,7 C 93 % 1015,8 hPa 0,0 l/m 0 min 0 min 0,0 UV-I 0 W/m 0,0 km/h (0 Bft)
12.10.2013 19:42 7,8 C 6,7 C 94 % 1015,9 hPa 0,0 l/m 0 min 0 min 0,0 UV-I 0 W/m 0,0 km/h (0 Bft)
12.10.2013 19:44 7,8 C 6,7 C 94 % 1016,0 hPa 0,0 l/m 0 min 0 min 0,0 UV-I 0 W/m 0,0 km/h (0 Bft)
12.10.2013 19:46 7,8 C 6,7 C 94 % 1015,9 hPa 0,0 l/m 0 min 0 min 0,0 UV-I 0 W/m 0,0 km/h (0 Bft)
12.10.2013 19:48 7,8 C 6,7 C 94 % 1015,9 hPa 0,0 l/m 0 min 0 min 0,0 UV-I 0 W/m 0,0 km/h (0 Bft)
12.10.2013 19:50 7,8 C 6,7 C 94 % 1015,9 hPa 0,0 l/m 0 min 0 min 0,0 UV-I 0 W/m 0,0 km/h (0 Bft)
12.10.2013 19:52 7,8 C 6,7 C 94 % 1015,9 hPa 0,0 l/m 0 min 0 min 0,0 UV-I 0 W/m 0,0 km/h (0 Bft)
12.10.2013 19:54 7,8 C 6,7 C 94 % 1015,8 hPa 0,0 l/m 0 min 0 min 0,0 UV-I 0 W/m 0,0 km/h (0 Bft)
12.10.2013 19:56 7,8 C 6,7 C 94 % 1015,9 hPa 0,0 l/m 0 min 2 min 0,0 UV-I 0 W/m 0,0 km/h (0 Bft)
12.10.2013 19:58 7,9 C 6,7 C 94 % 1015,8 hPa 0,0 l/m 0 min 2 min 0,0 UV-I 0 W/m 0,0 km/h (0 Bft)
12.10.2013 20:00 7,9 C 6,7 C 94 % 1015,8 hPa 0,0 l/m 0 min 2 min 0,0 UV-I 0 W/m 0,0 km/h (0 Bft)
12.10.2013 20:02 7,9 C 6,7 C 94 % 1015,7 hPa 0,0 l/m 0 min 2 min 0,0 UV-I 0 W/m 0,0 km/h (0 Bft)
12.10.2013 20:06 7,9 C 6,7 C 94 % 1015,7 hPa 0,0 l/m 0 min 2 min 0,0 UV-I 0 W/m 0,0 km/h (0 Bft)
12.10.2013 20:08 7,9 C 6,7 C 94 % 1015,6 hPa 0,0 l/m 0 min 2 min 0,0 UV-I 0 W/m 0,0 km/h (0 Bft)
12.10.2013 20:10 7,9 C 6,7 C 94 % 1015,6 hPa 0,0 l/m 0 min 2 min 0,0 UV-I 0 W/m 0,0 km/h (0 Bft)
12.10.2013 20:12 7,9 C 6,7 C 94 % 1015,6 hPa 0,0 l/m 0 min 2 min 0,0 UV-I 0 W/m 0,0 km/h (0 Bft)
12.10.2013 20:14 7,9 C 6,7 C 95 % 1015,5 hPa 0,0 l/m 0 min 2 min 0,0 UV-I 0 W/m 0,0 km/h (0 Bft)
12.10.2013 20:16 7,9 C 6,7 C 95 % 1015,5 hPa 0,0 l/m 0 min 2 min 0,0 UV-I 0 W/m 0,0 km/h (0 Bft)
12.10.2013 20:18 7,9 C 6,7 C 95 % 1015,5 hPa 0,0 l/m 0 min 2 min 0,0 UV-I 0 W/m 0,0 km/h (0 Bft)
12.10.2013 20:20 7,9 C 6,7 C 95 % 1015,5 hPa 0,0 l/m 0 min 0 min 0,0 UV-I 0 W/m 0,0 km/h (0 Bft)
12.10.2013 20:22 7,9 C 6,7 C 95 % 1015,5 hPa 0,0 l/m 0 min 0 min 0,0 UV-I 0 W/m 0,0 km/h (0 Bft)
12.10.2013 20:24 7,9 C 6,7 C 95 % 1015,5 hPa 0,0 l/m 0 min 2 min 0,0 UV-I 0 W/m 0,0 km/h (0 Bft)
12.10.2013 20:26 7,9 C 6,7 C 95 % 1015,5 hPa 0,0 l/m 0 min 2 min 0,0 UV-I 0 W/m 0,0 km/h (0 Bft)
12.10.2013 20:28 7,9 C 6,7 C 95 % 1015,5 hPa 0,0 l/m 0 min 2 min 0,0 UV-I 0 W/m 0,0 km/h (0 Bft)
12.10.2013 20:30 7,9 C 6,7 C 95 % 1015,4 hPa 0,0 l/m 0 min 2 min 0,0 UV-I 0 W/m 0,0 km/h (0 Bft)
12.10.2013 20:32 7,9 C 6,7 C 95 % 1015,4 hPa 0,0 l/m 0 min 2 min 0,0 UV-I 0 W/m 0,0 km/h (0 Bft)
12.10.2013 20:34 7,9 C 6,7 C 95 % 1015,4 hPa 0,0 l/m 0 min 2 min 0,0 UV-I 0 W/m 0,0 km/h (0 Bft)
12.10.2013 20:36 7,9 C 6,7 C 95 % 1015,4 hPa 0,0 l/m 0 min 2 min 0,0 UV-I 0 W/m 0,0 km/h (0 Bft)
12.10.2013 20:38 7,9 C 6,7 C 95 % 1015,5 hPa 0,0 l/m 0 min 2 min 0,0 UV-I 0 W/m 0,0 km/h (0 Bft)
12.10.2013 20:40 7,9 C 6,7 C 95 % 1015,4 hPa 0,0 l/m 0 min 0 min 0,0 UV-I 0 W/m 0,0 km/h (0 Bft)
12.10.2013 20:42 7,9 C 6,7 C 95 % 1015,5 hPa 0,0 l/m 0 min 2 min 0,0 UV-I 0 W/m 0,0 km/h (0 Bft)
12.10.2013 20:44 7,9 C 6,7 C 95 % 1015,5 hPa 0,0 l/m 0 min 0 min 0,0 UV-I 0 W/m 0,0 km/h (0 Bft)
12.10.2013 20:46 7,9 C 6,7 C 95 % 1015,5 hPa 0,0 l/m 0 min 0 min 0,0 UV-I 0 W/m 0,0 km/h (0 Bft)
12.10.2013 20:48 7,9 C 6,7 C 95 % 1015,5 hPa 0,0 l/m 0 min 2 min 0,0 UV-I 0 W/m 0,0 km/h (0 Bft)
12.10.2013 20:50 7,9 C 6,7 C 95 % 1015,5 hPa 0,0 l/m 0 min 2 min 0,0 UV-I 0 W/m 0,0 km/h (0 Bft)
12.10.2013 20:52 7,8 C 6,7 C 95 % 1015,5 hPa 0,0 l/m 0 min 0 min 0,0 UV-I 0 W/m 0,0 km/h (0 Bft)
12.10.2013 20:54 7,8 C 6,7 C 95 % 1015,5 hPa 0,0 l/m 0 min 2 min 0,0 UV-I 0 W/m 0,0 km/h (0 Bft)
12.10.2013 20:56 7,9 C 6,7 C 95 % 1015,5 hPa 0,0 l/m 0 min 0 min 0,0 UV-I 0 W/m 0,0 km/h (0 Bft)
12.10.2013 20:58 7,9 C 6,7 C 95 % 1015,4 hPa 0,0 l/m 0 min 0 min 0,0 UV-I 0 W/m 0,0 km/h (0 Bft)
12.10.2013 21:00 7,9 C 6,7 C 95 % 1015,4 hPa 0,0 l/m 0 min 2 min 0,0 UV-I 0 W/m 0,0 km/h (0 Bft)
12.10.2013 21:02 7,9 C 6,7 C 95 % 1015,4 hPa 0,2 l/m 0 min 0 min 0,0 UV-I 0 W/m 0,0 km/h (0 Bft)
12.10.2013 21:06 7,9 C 6,7 C 95 % 1015,4 hPa 0,0 l/m 0 min 2 min 0,0 UV-I 0 W/m 0,0 km/h (0 Bft)
12.10.2013 21:08 7,9 C 6,7 C 95 % 1015,4 hPa 0,0 l/m 0 min 0 min 0,0 UV-I 0 W/m 0,0 km/h (0 Bft)
12.10.2013 21:10 7,9 C 6,7 C 95 % 1015,4 hPa 0,0 l/m 0 min 0 min 0,0 UV-I 0 W/m 0,0 km/h (0 Bft)
12.10.2013 21:12 7,9 C 6,7 C 95 % 1015,4 hPa 0,0 l/m 0 min 0 min 0,0 UV-I 0 W/m 0,0 km/h (0 Bft)
12.10.2013 21:14 7,9 C 6,7 C 95 % 1015,4 hPa 0,0 l/m 0 min 0 min 0,0 UV-I 0 W/m 0,0 km/h (0 Bft)
12.10.2013 21:16 7,9 C 6,7 C 96 % 1015,4 hPa 0,0 l/m 0 min 0 min 0,0 UV-I 0 W/m 0,0 km/h (0 Bft)
12.10.2013 21:18 7,9 C 6,7 C 96 % 1015,4 hPa 0,0 l/m 0 min 0 min 0,0 UV-I 0 W/m 0,0 km/h (0 Bft)
12.10.2013 21:20 7,9 C 6,7 C 96 % 1015,3 hPa 0,0 l/m 0 min 0 min 0,0 UV-I 0 W/m 0,0 km/h (0 Bft)
12.10.2013 21:22 7,9 C 6,7 C 96 % 1015,3 hPa 0,0 l/m 0 min 0 min 0,0 UV-I 0 W/m 0,0 km/h (0 Bft)
12.10.2013 21:24 7,9 C 6,7 C 96 % 1015,3 hPa 0,0 l/m 0 min 0 min 0,0 UV-I 0 W/m 0,0 km/h (0 Bft)
12.10.2013 21:26 7,9 C 6,7 C 96 % 1015,2 hPa 0,0 l/m 0 min 0 min 0,0 UV-I 0 W/m 7,7 km/h (2 Bft)
12.10.2013 21:28 7,9 C 6,7 C 96 % 1015,2 hPa 0,0 l/m 0 min 0 min 0,0 UV-I 0 W/m 0,0 km/h (0 Bft)
12.10.2013 21:30 7,9 C 6,7 C 96 % 1015,2 hPa 0,0 l/m 0 min 2 min 0,0 UV-I 0 W/m 0,0 km/h (0 Bft)
12.10.2013 21:32 7,9 C 6,7 C 96 % 1015,2 hPa 0,0 l/m 0 min 0 min 0,0 UV-I 0 W/m 0,0 km/h (0 Bft)
12.10.2013 21:34 7,9 C 6,7 C 96 % 1015,3 hPa 0,0 l/m 0 min 2 min 0,0 UV-I 0 W/m 7,7 km/h (2 Bft)
12.10.2013 21:36 7,9 C 6,7 C 96 % 1015,3 hPa 0,0 l/m 0 min 2 min 0,0 UV-I 0 W/m 10,3 km/h (2 Bft)
12.10.2013 21:38 7,8 C 6,7 C 96 % 1015,3 hPa 0,0 l/m 0 min 2 min 0,0 UV-I 0 W/m 0,0 km/h (0 Bft)
12.10.2013 21:40 7,8 C 6,7 C 96 % 1015,3 hPa 0,0 l/m 0 min 2 min 0,0 UV-I 0 W/m 0,0 km/h (0 Bft)
12.10.2013 21:42 7,8 C 6,7 C 96 % 1015,3 hPa 0,0 l/m 0 min 2 min 0,0 UV-I 0 W/m 7,7 km/h (2 Bft)
12.10.2013 21:44 7,7 C 6,7 C 96 % 1015,3 hPa 0,0 l/m 0 min 2 min 0,0 UV-I 0 W/m 0,0 km/h (0 Bft)
12.10.2013 21:46 7,7 C 6,7 C 96 % 1015,3 hPa 0,0 l/m 0 min 2 min 0,0 UV-I 0 W/m 0,0 km/h (0 Bft)
12.10.2013 21:48 7,7 C 6,7 C 96 % 1015,3 hPa 0,0 l/m 0 min 2 min 0,0 UV-I 0 W/m 5,1 km/h (1 Bft)
12.10.2013 21:50 7,7 C 6,7 C 96 % 1015,3 hPa 0,0 l/m 0 min 2 min 0,0 UV-I 0 W/m 0,0 km/h (0 Bft)
12.10.2013 21:52 7,7 C 6,7 C 96 % 1015,3 hPa 0,0 l/m 0 min 2 min 0,0 UV-I 0 W/m 0,0 km/h (0 Bft)
12.10.2013 21:54 7,7 C 6,7 C 96 % 1015,4 hPa 0,0 l/m 0 min 2 min 0,0 UV-I 0 W/m 0,0 km/h (0 Bft)
12.10.2013 21:56 7,7 C 6,7 C 96 % 1015,4 hPa 0,0 l/m 0 min 2 min 0,0 UV-I 0 W/m 0,0 km/h (0 Bft)
12.10.2013 21:58 7,7 C 6,7 C 96 % 1015,4 hPa 0,0 l/m 0 min 2 min 0,0 UV-I 0 W/m 0,0 km/h (0 Bft)
12.10.2013 22:00 7,7 C 6,7 C 96 % 1015,4 hPa 0,0 l/m 0 min 0 min 0,0 UV-I 0 W/m 0,0 km/h (0 Bft)
12.10.2013 22:02 7,7 C 6,7 C 96 % 1015,5 hPa 0,0 l/m 0 min 2 min 0,0 UV-I 0 W/m 0,0 km/h (0 Bft)
12.10.2013 22:06 7,7 C 6,7 C 96 % 1015,4 hPa 0,0 l/m 0 min 2 min 0,0 UV-I 0 W/m 0,0 km/h (0 Bft)
12.10.2013 22:08 7,7 C 6,7 C 96 % 1015,4 hPa 0,0 l/m 0 min 2 min 0,0 UV-I 0 W/m 0,0 km/h (0 Bft)
12.10.2013 22:10 7,7 C 6,7 C 96 % 1015,4 hPa 0,0 l/m 0 min 0 min 0,0 UV-I 0 W/m 0,0 km/h (0 Bft)
12.10.2013 22:12 7,7 C 6,7 C 96 % 1015,4 hPa 0,0 l/m 0 min 2 min 0,0 UV-I 0 W/m 2,6 km/h (1 Bft)
12.10.2013 22:14 7,7 C 6,7 C 96 % 1015,4 hPa 0,0 l/m 0 min 0 min 0,0 UV-I 0 W/m 0,0 km/h (0 Bft)
12.10.2013 22:16 7,7 C 6,7 C 96 % 1015,4 hPa 0,0 l/m 0 min 0 min 0,0 UV-I 0 W/m 0,0 km/h (0 Bft)
12.10.2013 22:18 7,7 C 6,7 C 96 % 1015,5 hPa 0,0 l/m 0 min 0 min 0,0 UV-I 0 W/m 0,0 km/h (0 Bft)
12.10.2013 22:20 7,6 C 6,7 C 96 % 1015,5 hPa 0,0 l/m 0 min 0 min 0,0 UV-I 0 W/m 0,0 km/h (0 Bft)
12.10.2013 22:22 7,6 C 6,7 C 96 % 1015,5 hPa 0,0 l/m 0 min 0 min 0,0 UV-I 0 W/m 0,0 km/h (0 Bft)
12.10.2013 22:24 7,6 C 6,7 C 96 % 1015,5 hPa 0,0 l/m 0 min 2 min 0,0 UV-I 0 W/m 0,0 km/h (0 Bft)
12.10.2013 22:26 7,6 C 6,7 C 96 % 1015,5 hPa 0,0 l/m 0 min 2 min 0,0 UV-I 0 W/m 0,0 km/h (0 Bft)
12.10.2013 22:28 7,6 C 6,7 C 96 % 1015,5 hPa 0,0 l/m 0 min 2 min 0,0 UV-I 0 W/m 0,0 km/h (0 Bft)
12.10.2013 22:30 7,6 C 6,7 C 97 % 1015,5 hPa 0,0 l/m 0 min 2 min 0,0 UV-I 0 W/m 0,0 km/h (0 Bft)
12.10.2013 22:32 7,6 C 6,7 C 97 % 1015,6 hPa 0,0 l/m 0 min 2 min 0,0 UV-I 0 W/m 0,0 km/h (0 Bft)
12.10.2013 22:34 7,6 C 6,7 C 97 % 1015,6 hPa 0,0 l/m 0 min 2 min 0,0 UV-I 0 W/m 0,0 km/h (0 Bft)
12.10.2013 22:36 7,6 C 6,7 C 97 % 1015,5 hPa 0,0 l/m 0 min 2 min 0,0 UV-I 0 W/m 0,0 km/h (0 Bft)
12.10.2013 22:38 7,6 C 6,7 C 97 % 1015,5 hPa 0,0 l/m 0 min 2 min 0,0 UV-I 0 W/m 0,0 km/h (0 Bft)
12.10.2013 22:40 7,6 C 6,7 C 97 % 1015,5 hPa 0,0 l/m 0 min 2 min 0,0 UV-I 0 W/m 0,0 km/h (0 Bft)
12.10.2013 22:42 7,6 C 6,7 C 97 % 1015,5 hPa 0,0 l/m 0 min 2 min 0,0 UV-I 0 W/m 0,0 km/h (0 Bft)
12.10.2013 22:44 7,6 C 6,7 C 97 % 1015,5 hPa 0,0 l/m 0 min 2 min 0,0 UV-I 0 W/m 0,0 km/h (0 Bft)
12.10.2013 22:46 7,6 C 6,7 C 97 % 1015,5 hPa 0,0 l/m 0 min 2 min 0,0 UV-I 0 W/m 0,0 km/h (0 Bft)
12.10.2013 22:48 7,6 C 6,7 C 97 % 1015,5 hPa 0,2 l/m 0 min 2 min 0,0 UV-I 0 W/m 0,0 km/h (0 Bft)
12.10.2013 22:50 7,5 C 6,7 C 97 % 1015,5 hPa 0,0 l/m 0 min 2 min 0,0 UV-I 0 W/m 0,0 km/h (0 Bft)
12.10.2013 22:52 7,5 C 6,7 C 97 % 1015,5 hPa 0,0 l/m 0 min 2 min 0,0 UV-I 0 W/m 2,6 km/h (1 Bft)
12.10.2013 22:54 7,5 C 6,7 C 97 % 1015,4 hPa 0,0 l/m 0 min 2 min 0,0 UV-I 0 W/m 0,0 km/h (0 Bft)
12.10.2013 22:56 7,5 C 6,1 C 97 % 1015,5 hPa 0,0 l/m 0 min 2 min 0,0 UV-I 0 W/m 0,0 km/h (0 Bft)
12.10.2013 22:58 7,5 C 6,7 C 97 % 1015,5 hPa 0,0 l/m 0 min 2 min 0,0 UV-I 0 W/m 0,0 km/h (0 Bft)
12.10.2013 23:00 7,5 C 6,7 C 97 % 1015,4 hPa 0,0 l/m 0 min 2 min 0,0 UV-I 0 W/m 0,0 km/h (0 Bft)
12.10.2013 23:02 7,4 C 6,7 C 97 % 1015,5 hPa 0,0 l/m 0 min 2 min 0,0 UV-I 0 W/m 2,6 km/h (1 Bft)
12.10.2013 23:06 7,4 C 6,1 C 97 % 1015,5 hPa 0,0 l/m 0 min 2 min 0,0 UV-I 0 W/m 0,0 km/h (0 Bft)
12.10.2013 23:08 7,4 C 6,1 C 97 % 1015,4 hPa 0,0 l/m 0 min 0 min 0,0 UV-I 0 W/m 0,0 km/h (0 Bft)
12.10.2013 23:10 7,4 C 6,1 C 97 % 1015,4 hPa 0,0 l/m 0 min 0 min 0,0 UV-I 0 W/m 0,0 km/h (0 Bft)
12.10.2013 23:12 7,4 C 6,1 C 97 % 1015,5 hPa 0,0 l/m 0 min 0 min 0,0 UV-I 0 W/m 0,0 km/h (0 Bft)
12.10.2013 23:14 7,4 C 6,1 C 97 % 1015,4 hPa 0,0 l/m 0 min 2 min 0,0 UV-I 0 W/m 0,0 km/h (0 Bft)
12.10.2013 23:16 7,4 C 6,1 C 97 % 1015,4 hPa 0,0 l/m 0 min 0 min 0,0 UV-I 0 W/m 0,0 km/h (0 Bft)
12.10.2013 23:18 7,4 C 6,1 C 97 % 1015,4 hPa 0,0 l/m 0 min 0 min 0,0 UV-I 0 W/m 0,0 km/h (0 Bft)
12.10.2013 23:20 7,4 C 6,1 C 97 % 1015,4 hPa 0,0 l/m 0 min 0 min 0,0 UV-I 0 W/m 7,7 km/h (2 Bft)
12.10.2013 23:22 7,4 C 6,1 C 97 % 1015,4 hPa 0,0 l/m 0 min 0 min 0,0 UV-I 0 W/m 0,0 km/h (0 Bft)
12.10.2013 23:24 7,4 C 6,1 C 97 % 1015,3 hPa 0,0 l/m 0 min 0 min 0,0 UV-I 0 W/m 0,0 km/h (0 Bft)
12.10.2013 23:26 7,4 C 6,1 C 97 % 1015,3 hPa 0,0 l/m 0 min 0 min 0,0 UV-I 0 W/m 0,0 km/h (0 Bft)
12.10.2013 23:28 7,4 C 6,1 C 97 % 1015,3 hPa 0,0 l/m 0 min 2 min 0,0 UV-I 0 W/m 2,6 km/h (1 Bft)
12.10.2013 23:30 7,4 C 6,1 C 97 % 1015,3 hPa 0,0 l/m 0 min 2 min 0,0 UV-I 0 W/m 0,0 km/h (0 Bft)
12.10.2013 23:32 7,4 C 6,1 C 97 % 1015,3 hPa 0,0 l/m 0 min 2 min 0,0 UV-I 0 W/m 0,0 km/h (0 Bft)
12.10.2013 23:34 7,4 C 6,1 C 97 % 1015,3 hPa 0,0 l/m 0 min 2 min 0,0 UV-I 0 W/m 0,0 km/h (0 Bft)
12.10.2013 23:36 7,4 C 6,1 C 97 % 1015,3 hPa 0,0 l/m 0 min 2 min 0,0 UV-I 0 W/m 0,0 km/h (0 Bft)
12.10.2013 23:38 7,4 C 6,1 C 97 % 1015,3 hPa 0,0 l/m 0 min 2 min 0,0 UV-I 0 W/m 0,0 km/h (0 Bft)
12.10.2013 23:40 7,4 C 6,1 C 97 % 1015,2 hPa 0,0 l/m 0 min 2 min 0,0 UV-I 0 W/m 0,0 km/h (0 Bft)
12.10.2013 23:42 7,4 C 6,1 C 97 % 1015,2 hPa 0,0 l/m 0 min 2 min 0,0 UV-I 0 W/m 0,0 km/h (0 Bft)
12.10.2013 23:44 7,4 C 6,1 C 97 % 1015,2 hPa 0,0 l/m 0 min 2 min 0,0 UV-I 0 W/m 0,0 km/h (0 Bft)
12.10.2013 23:46 7,4 C 6,1 C 97 % 1015,2 hPa 0,0 l/m 0 min 2 min 0,0 UV-I 0 W/m 0,0 km/h (0 Bft)
12.10.2013 23:48 7,4 C 6,1 C 97 % 1015,3 hPa 0,0 l/m 0 min 2 min 0,0 UV-I 0 W/m 0,0 km/h (0 Bft)
12.10.2013 23:50 7,4 C 6,1 C 97 % 1015,3 hPa 0,0 l/m 0 min 2 min 0,0 UV-I 0 W/m 0,0 km/h (0 Bft)
12.10.2013 23:52 7,4 C 6,1 C 97 % 1015,3 hPa 0,0 l/m 0 min 2 min 0,0 UV-I 0 W/m 0,0 km/h (0 Bft)
12.10.2013 23:54 7,4 C 6,1 C 97 % 1015,2 hPa 0,0 l/m 0 min 2 min 0,0 UV-I 0 W/m 0,0 km/h (0 Bft)
12.10.2013 23:56 7,4 C 6,1 C 97 % 1015,2 hPa 0,0 l/m 0 min 2 min 0,0 UV-I 0 W/m 0,0 km/h (0 Bft)
12.10.2013 23:58 7,4 C 6,1 C 97 % 1015,2 hPa 0,0 l/m 0 min 2 min 0,0 UV-I 0 W/m 0,0 km/h (0 Bft)
_ Min-Zeit 07:38 06:56 14:44 21:26 - - - - - 00:00
Minimum _ 2,1 C 1,1 C 81 % 1015,2 hPa - - - - - 0,0 km/h (0 Bft)
_ Max-Zeit 14:38 15:06 09:00 10:22 21:02 08:12 06:10 13:38 13:06 02:32
Maximum _ 10,9 C 10,0 C 99 % 1020,1 hPa 0,2 l/m 2 min 2 min 1,1 UV-I 599 W/m 12,9 km/h
O (3 Bft)
Durchschnitt _ 6,6 C 5,6 C 94 % 1017,7 hPa #0,4 l/m #2:36 h #2:48 h 0,7 UV-I 169 W/m 0,8 km/h (0 Bft)
© 2013 W. Hausmann